GEFSMA_500_meanwind_000.txt.gz
Wind_Speed
30 33 35 35 34 34 33 33 34 35 34 33 32 31 30 31 31 33 34 35 36 38 39 40 41 42 43 44 44 44 45 46 46 46 47 47 47 47 46 45 45 45 44
30 31 30 29 28 31 31 31 34 35 34 32 32 32 32 33 34 36 37 38 39 39 40 42 43 44 46 47 47 48 50 51 51 51 52 53 53 54 53 53 52 52 52
29 25 27 26 26 29 30 32 35 37 36 35 34 35 36 37 38 39 40 40 41 41 43 44 45 46 48 50 50 52 54 55 56 57 58 58 58 58 57 58 58 58 58
25 26 27 27 29 31 33 37 40 40 37 36 35 36 38 39 40 41 41 42 43 44 45 46 48 50 52 54 57 59 61 62 63 65 66 67 67 67 67 66 66 65 65
26 29 30 32 34 35 39 42 43 41 39 38 37 39 40 41 42 42 43 45 46 48 49 52 54 57 60 62 64 66 68 69 70 71 73 74 75 75 74 73 72 72 71
30 32 34 36 38 40 42 44 45 44 42 39 39 40 42 42 43 45 47 49 51 53 56 59 61 64 66 68 69 71 72 73 74 75 75 76 77 78 78 78 77 77 77
32 35 37 39 42 43 44 46 45 43 42 40 40 42 44 46 47 49 52 55 57 60 63 65 67 69 71 72 73 74 75 76 77 78 79 80 81 82 83 84 84 85 85
34 37 40 41 43 44 44 41 39 39 41 42 43 45 46 48 51 54 57 59 62 64 66 68 70 71 73 73 74 75 76 78 78 79 81 84 85 87 89 90 91 92 92
38 40 41 42 42 40 37 37 39 41 44 47 49 51 53 54 55 56 59 62 64 65 67 68 70 71 72 73 75 77 79 80 82 84 86 88 89 90 92 94 96 97 98
39 41 42 41 38 37 38 40 43 45 47 50 54 59 62 65 66 65 63 64 66 67 68 68 69 71 73 75 78 80 83 84 88 91 93 95 96 97 99 99 101 103 104
41 42 40 38 39 39 41 44 47 49 52 55 58 61 64 67 71 73 71 69 67 67 68 70 73 76 80 82 85 88 91 95 98 101 102 104 105 106 107 107 106 106 107
41 39 38 39 41 42 44 46 49 53 56 59 62 65 67 68 68 69 70 71 74 75 76 77 81 86 89 92 95 100 105 108 110 111 111 111 111 111 111 111 110 110 110
39 39 40 41 42 44 47 50 53 57 60 63 66 67 68 67 68 70 73 75 77 79 82 85 90 95 99 104 109 114 118 119 119 118 115 112 109 106 105 104 103 104 104
39 40 42 43 45 48 51 55 58 61 65 67 67 66 65 66 69 73 79 83 85 86 87 92 97 104 109 114 118 122 123 120 117 112 108 104 100 97 95 93 93 93 94
40 41 43 46 49 52 55 58 61 65 67 67 65 65 66 69 73 79 84 90 95 97 94 98 106 112 118 121 120 118 113 107 101 96 92 87 84 82 82 82 82 83 83
42 43 46 49 53 56 59 63 67 68 67 65 65 67 71 75 80 85 90 95 101 107 107 107 114 119 120 116 106 98 92 88 83 79 78 79 80 79 78 77 76 76 75
45 47 50 53 56 60 64 67 69 68 65 65 68 72 77 82 86 90 96 102 108 115 120 117 117 112 102 94 84 78 75 76 77 77 78 79 78 75 72 71 71 70 71
48 50 53 56 60 64 68 69 67 65 66 69 74 79 83 87 92 98 104 110 115 120 121 116 100 85 76 72 70 67 68 72 77 77 73 69 67 66 66 67 68 68 69
51 53 56 60 64 68 69 67 65 66 69 74 80 85 90 94 100 106 112 117 120 116 106 93 79 69 65 63 64 65 68 71 69 63 59 59 57 57 57 59 60 61 62
53 56 60 65 68 69 67 65 66 69 74 80 86 92 98 103 108 114 118 119 113 98 85 77 71 65 62 62 64 66 65 59 52 48 45 44 46 49 51 52 51 51 52
55 59 64 68 70 67 65 66 69 74 80 85 92 99 105 110 115 119 117 107 95 86 81 77 73 70 67 67 69 68 59 49 40 40 42 42 47 49 50 47 42 39 39
59 64 69 69 66 65 67 71 76 80 86 93 99 106 111 115 118 112 99 91 89 87 83 78 75 71 68 67 66 58 51 44 36 37 45 43 49 46 42 36 30 25 22
63 68 68 64 64 67 72 77 82 87 94 101 107 112 115 115 106 95 90 88 84 80 76 72 67 63 60 57 52 47 45 40 35 35 39 36 37 34 30 22 15 10 12
66 66 63 64 67 72 77 81 86 93 100 105 110 115 112 100 90 88 86 80 75 68 60 53 49 47 45 43 42 40 35 29 27 29 29 24 27 23 16 10 6 8 15
63 61 62 66 72 77 81 86 92 98 103 108 113 108 96 88 85 81 75 69 60 47 38 32 31 33 34 36 36 31 28 25 24 28 28 24 22 17 12 8 8 11 17
58 60 65 71 75 81 87 92 97 102 107 110 103 90 84 81 75 69 62 53 39 30 25 22 23 25 28 30 30 30 27 25 22 24 28 23 20 16 11 11 12 13 17

GEFSMA_500_meanwind_006.txt.gz
Wind_Speed
27 28 31 33 33 32 29 25 24 25 26 27 29 31 34 35 36 36 36 36 36 36 37 38 39 40 41 42 42 42 42 42 42 42 43 43 43 43 43 43 44 44 44
29 31 32 32 33 31 27 25 26 27 29 32 34 36 38 39 40 39 38 38 38 39 39 40 41 42 43 44 44 45 46 46 45 45 45 45 46 46 47 48 48 49 49
27 29 30 32 32 30 28 27 28 31 33 36 38 41 42 43 43 42 40 39 40 40 41 42 43 44 45 46 46 47 48 49 50 50 51 51 53 54 55 56 56 57 57
25 28 30 32 32 31 30 30 32 34 36 38 41 44 44 43 42 40 39 39 40 41 43 44 46 47 47 49 50 51 53 54 56 58 58 59 60 61 62 62 62 63 63
25 28 31 32 32 30 31 32 34 36 38 40 42 42 40 38 38 38 39 40 42 43 45 47 48 50 52 53 55 57 58 59 61 62 63 64 65 66 66 66 67 67 67
27 30 32 31 29 29 32 34 36 37 39 40 40 39 36 37 38 40 41 43 45 47 49 51 53 55 56 58 60 61 62 63 64 64 65 66 66 66 66 67 68 68 69
28 31 30 28 29 32 35 37 38 40 40 39 38 38 39 40 42 43 44 46 49 52 55 57 58 60 61 63 64 64 64 64 65 65 65 66 66 67 67 68 69 69 70
31 32 31 32 34 36 38 39 40 42 41 40 39 39 40 42 45 47 49 52 54 57 59 61 62 63 64 64 65 65 65 65 66 67 69 70 71 72 73 74 75 75 75
34 34 35 36 38 40 41 42 42 42 42 42 42 42 43 44 45 47 52 56 59 60 61 62 62 62 63 64 64 66 67 70 72 74 77 78 79 80 81 82 83 83 83
37 38 38 40 42 43 43 43 43 42 42 43 45 47 50 52 54 53 53 56 59 60 61 61 61 61 63 65 69 71 74 77 79 82 84 86 88 89 90 91 91 92 92
39 40 42 44 44 44 44 44 43 42 43 45 48 51 54 58 61 62 59 59 60 60 60 61 62 64 66 70 73 77 80 83 86 89 92 95 97 99 100 101 102 102 102
41 42 45 46 44 44 44 43 43 44 46 50 53 56 59 62 64 65 64 64 64 62 63 64 66 69 73 77 81 84 88 92 95 98 101 104 106 108 110 111 112 113 114
42 44 45 44 43 44 44 43 44 47 51 54 57 61 64 66 68 70 70 68 67 67 68 70 73 77 82 86 90 95 99 103 106 110 113 115 117 119 120 121 122 122 122
43 44 43 43 44 44 44 45 47 51 55 58 62 64 67 70 73 74 72 72 72 72 73 75 79 85 91 96 102 107 111 115 119 122 124 124 124 122 120 118 115 112 110
42 42 42 43 43 44 45 48 51 55 59 62 65 67 71 75 75 73 73 75 78 79 79 81 86 93 100 106 112 118 122 126 127 125 120 114 107 101 95 91 88 86 85
41 42 43 43 44 46 48 52 55 58 62 64 67 71 75 76 74 74 76 79 83 86 88 90 96 103 110 117 123 126 126 122 116 110 104 97 89 81 76 73 72 70 70
41 42 43 44 47 49 52 55 59 62 64 67 71 75 75 75 75 77 79 83 89 96 100 101 106 111 117 119 118 113 108 103 99 96 92 87 81 76 72 69 66 65 66
41 43 45 47 50 53 56 59 62 63 66 71 74 75 74 75 76 79 85 91 98 104 109 112 113 115 112 105 98 92 88 86 83 79 75 71 68 66 64 63 62 62 63
42 44 47 51 54 57 59 60 62 66 71 74 74 74 74 76 79 85 92 99 105 110 114 117 114 105 95 85 76 69 65 61 58 55 53 51 51 50 51 52 54 55 56
44 48 51 54 55 56 57 62 67 71 73 73 73 74 76 81 87 93 99 106 111 113 112 108 99 87 73 61 55 50 44 41 39 39 38 37 37 39 41 44 46 47 48
47 51 53 53 54 58 63 67 70 71 71 72 73 76 82 87 93 100 106 110 111 107 100 91 79 65 53 47 43 40 36 31 31 34 30 31 32 33 36 38 39 40 42
50 52 52 55 59 63 67 70 70 70 71 73 77 82 88 94 100 106 110 108 102 93 83 72 59 49 42 39 36 34 32 30 27 29 28 28 30 31 34 36 37 38 38
51 53 56 59 62 66 69 69 69 71 73 78 83 89 94 101 107 109 106 97 85 75 66 57 47 40 35 34 33 30 28 27 28 27 24 24 28 30 34 35 35 33 30
53 55 58 62 65 66 66 68 69 72 78 83 89 95 101 106 108 104 95 82 69 59 52 46 41 36 33 33 32 28 24 22 26 30 30 28 29 30 32 32 29 25 22
54 57 60 63 64 64 66 68 72 77 83 89 95 101 106 107 102 92 79 66 54 45 42 40 37 35 33 33 32 28 24 22 24 30 34 33 32 29 29 29 25 20 16
55 58 61 61 62 64 67 71 77 82 88 94 100 105 105 99 87 74 63 52 42 36 35 34 33 33 34 33 33 32 30 28 28 28 31 31 31 28 25 26 21 15 13

GEFSMA_500_meanwind_012.txt.gz
Wind_Speed
30 30 31 31 29 28 28 29 29 30 29 27 25 25 27 28 30 32 34 36 38 39 38 37 37 36 37 37 37 37 38 38 39 39 40 40 41 41 41 41 42 42 43
29 29 30 31 30 30 30 30 30 31 31 29 29 29 30 31 33 35 36 38 38 37 35 34 34 34 36 37 38 39 40 41 42 43 43 44 44 45 45 45 46 46 46
30 30 30 30 31 31 30 30 31 33 32 31 31 31 32 34 36 37 38 38 37 36 35 35 36 36 38 39 41 42 43 44 45 47 48 49 49 49 50 51 51 51 51
31 31 31 31 31 31 31 31 32 33 33 32 32 32 34 37 38 38 39 39 38 37 38 39 40 41 42 43 45 46 48 49 50 52 53 54 54 55 55 56 56 57 57
33 33 32 31 31 31 31 31 33 33 33 33 33 35 37 38 39 40 40 40 40 41 42 43 44 45 46 48 50 52 53 54 56 57 58 59 59 59 60 61 61 61 62
34 34 33 33 32 32 32 33 33 34 34 35 37 39 40 40 41 42 42 42 42 44 46 47 49 50 52 53 55 56 57 58 58 59 60 61 62 62 63 64 64 65 65
35 36 35 34 33 33 34 34 35 36 37 39 41 42 43 43 44 45 45 44 45 47 49 51 53 55 56 58 59 59 60 60 61 62 63 65 65 66 67 67 68 68 68
36 37 36 35 35 36 36 37 38 39 40 42 44 46 47 46 47 48 47 47 49 50 53 55 57 60 61 62 62 62 63 64 65 66 67 69 70 71 71 72 73 73 73
36 37 37 37 38 39 39 40 42 43 43 45 47 48 48 48 48 49 49 51 52 55 57 60 62 65 66 66 67 67 68 69 70 71 71 72 74 75 76 77 79 80 80
35 36 38 39 41 43 43 44 45 46 47 48 49 50 50 51 51 48 48 51 54 57 60 63 66 68 70 71 72 72 72 73 73 73 74 76 78 80 82 83 85 87 88
36 37 39 41 43 44 45 46 47 48 49 51 51 51 51 53 53 53 52 54 56 58 61 65 68 70 72 73 73 72 72 73 74 75 77 79 82 84 86 89 91 93 95
38 39 40 42 44 46 47 48 48 49 51 52 52 53 54 54 55 56 58 59 60 62 64 66 69 71 72 72 71 71 72 73 75 77 81 84 87 91 94 97 100 103 105
40 41 42 44 46 47 48 48 50 51 52 52 53 54 54 55 57 60 63 65 66 67 68 70 71 71 70 71 72 73 75 77 81 85 90 94 98 102 106 109 112 115 117
41 42 42 44 45 46 48 49 51 52 52 53 53 54 56 58 61 63 65 67 69 70 73 74 74 75 76 77 78 81 84 88 92 97 102 107 111 114 115 115 115 115 115
40 41 41 42 44 45 47 50 51 52 52 53 54 57 60 62 63 65 67 70 74 75 74 74 77 79 81 83 86 90 95 100 105 110 114 115 114 108 102 95 90 88 88
39 39 40 41 43 45 48 50 51 51 52 55 58 60 62 63 64 68 72 74 75 76 76 76 79 82 86 90 96 102 107 112 115 114 110 102 93 83 73 67 64 64 64
39 40 41 42 45 47 49 50 51 52 55 58 60 62 63 66 69 72 73 74 76 77 78 78 82 87 93 100 106 112 114 111 104 94 84 74 65 59 55 53 51 50 51
40 41 42 44 46 48 49 50 53 55 58 60 62 64 67 69 71 72 74 76 77 80 83 84 88 95 102 108 111 109 101 90 78 68 60 55 52 49 46 44 43 43 44
40 41 43 45 46 48 50 53 56 58 60 63 65 67 69 70 72 74 76 78 81 85 89 93 97 103 107 107 101 90 76 65 58 53 50 49 46 43 42 42 41 41 41
39 41 43 45 47 49 52 55 58 60 63 65 67 68 70 72 74 76 78 82 87 91 97 102 106 106 103 93 80 67 55 50 47 46 46 44 41 41 42 43 43 43 42
38 41 44 46 48 52 55 58 60 62 64 66 68 69 71 73 75 79 84 88 94 99 104 107 106 98 86 71 59 50 43 40 39 42 41 40 40 40 42 44 45 47 46
40 42 44 47 51 54 57 59 62 64 66 67 69 70 72 75 79 84 89 95 100 105 106 102 92 79 65 53 44 39 36 35 34 38 38 37 39 40 42 43 44 44 44
40 43 46 50 53 56 58 61 63 65 67 68 70 72 75 79 84 89 95 100 103 102 94 84 72 59 49 41 37 35 34 32 33 36 36 34 37 39 39 39 39 39 39
42 45 48 52 55 57 60 62 64 65 67 69 71 75 80 85 91 96 100 102 97 86 75 64 55 46 40 38 37 34 32 31 31 35 36 35 35 36 36 34 32 32 30
44 47 50 53 55 58 60 62 64 65 67 70 75 80 85 90 96 100 100 94 81 67 56 49 43 40 39 38 37 35 34 33 31 33 35 35 34 33 32 28 26 25 24
45 48 51 53 56 58 60 62 64 66 69 74 79 85 90 96 99 98 89 75 60 50 45 42 41 40 39 38 38 38 37 35 33 30 31 31 31 27 24 25 23 23 25

GEFSMA_500_meanwind_018.txt.gz
Wind_Speed
29 29 28 28 29 30 31 32 33 33 33 34 35 35 34 33 32 32 32 33 32 32 32 32 33 34 35 34 32 32 31 31 32 33 34 35 36 37 38 39 40 41 41
31 31 31 30 30 30 31 32 33 33 34 35 36 36 35 34 34 33 34 34 34 34 34 34 35 35 36 36 35 34 34 34 35 37 38 39 40 40 41 42 42 43 44
34 34 33 32 32 33 33 33 35 35 34 35 35 35 35 35 35 34 33 33 33 34 35 35 36 37 38 38 38 38 38 38 39 41 42 44 45 46 47 48 48 49 49
36 36 35 35 35 35 35 36 36 35 34 34 34 35 35 35 34 33 33 33 34 35 36 37 38 39 40 41 42 42 42 42 43 45 47 49 50 51 52 53 54 55 55
37 37 37 37 37 37 37 37 37 36 35 35 35 36 35 35 35 35 35 36 37 38 39 40 41 42 44 44 44 45 45 46 48 49 51 53 54 56 57 57 57 58 58
36 37 37 38 38 39 39 39 39 38 37 37 38 37 37 37 38 38 39 40 41 42 43 44 44 46 47 47 48 48 49 51 52 53 55 56 57 59 59 60 60 59 59
36 36 37 39 40 40 39 40 39 39 39 40 40 40 41 42 42 42 42 43 44 44 45 46 47 49 50 51 51 52 53 55 57 58 59 60 60 61 61 62 62 62 62
37 37 38 39 40 40 40 40 40 39 40 41 42 43 44 45 45 46 46 46 46 47 47 48 50 52 54 54 54 55 57 59 61 63 63 63 64 64 64 64 65 65 66
39 38 38 39 40 40 40 40 40 40 41 43 44 46 47 48 47 47 47 47 48 49 50 51 53 55 57 57 58 60 62 63 64 66 66 66 67 68 69 69 70 70 71
39 38 38 39 40 40 41 41 41 42 43 44 46 48 49 50 49 48 47 48 49 50 52 53 55 57 59 61 64 65 66 67 68 69 70 72 73 73 74 74 74 75 76
38 38 38 39 40 41 41 42 43 44 46 47 48 49 50 50 49 49 48 49 51 52 53 54 55 58 61 64 66 67 69 70 72 74 75 75 76 76 77 78 78 79 79
39 38 38 39 40 40 41 43 44 46 48 49 50 50 50 49 50 51 51 51 51 52 54 56 59 61 63 64 66 68 70 72 73 75 76 77 78 79 80 81 82 83 84
39 39 39 40 40 41 41 43 45 46 47 48 49 49 50 50 52 53 54 54 53 53 56 59 62 65 66 67 68 69 71 72 74 76 77 79 80 82 84 86 88 90 92
39 39 40 40 41 41 42 43 45 46 47 47 48 49 51 52 54 55 56 56 56 57 60 62 64 67 68 69 70 72 73 74 76 78 80 83 86 89 92 95 97 100 103
40 40 40 40 40 41 42 44 44 45 46 47 49 51 52 54 54 55 57 59 62 63 63 64 66 67 69 70 72 74 75 78 81 84 87 91 95 99 102 104 106 107 106
40 40 39 39 39 41 42 43 44 45 48 49 51 52 54 55 56 57 60 63 65 67 68 67 68 70 71 73 75 78 81 84 88 93 98 102 104 106 106 103 98 91 84
39 38 37 38 39 40 42 43 45 47 49 51 52 54 55 56 58 61 64 65 67 68 69 68 70 72 75 77 80 84 89 93 97 101 104 104 102 97 89 80 70 63 58
38 37 37 38 39 40 42 44 46 49 50 52 54 56 57 59 62 64 65 66 67 68 70 70 72 75 79 83 87 91 96 100 101 100 96 90 82 73 63 55 49 45 43
37 36 37 38 39 41 43 46 49 50 52 54 56 58 61 63 64 65 66 67 68 70 73 75 76 80 85 91 95 98 99 96 91 83 76 68 60 52 47 43 40 38 37
36 37 38 38 40 43 46 48 50 52 54 57 59 61 63 64 65 66 66 68 70 73 77 80 83 87 93 97 99 97 89 79 70 63 57 52 47 44 41 40 38 37 36
36 37 39 41 43 45 47 49 51 53 56 59 61 62 64 64 65 66 68 71 74 78 82 86 91 95 98 97 92 83 71 60 54 52 48 46 44 42 42 41 39 38 37
36 39 41 43 45 46 48 50 52 56 58 60 61 62 62 63 65 68 71 75 79 84 89 94 97 98 94 86 75 64 56 50 47 47 45 43 43 41 41 41 40 39 38
37 41 44 44 45 46 48 52 55 57 58 59 60 61 62 64 68 71 74 79 85 92 97 99 96 89 79 67 60 53 50 48 45 46 45 40 40 40 40 41 40 39 38
39 41 43 43 44 47 51 53 55 56 57 58 59 61 64 67 71 75 80 85 91 96 96 91 83 72 62 55 51 49 47 45 42 43 45 41 38 37 38 40 40 38 36
39 40 41 43 46 49 51 53 54 55 56 58 61 64 68 71 76 81 86 91 93 91 85 74 64 56 52 50 49 46 45 43 41 40 43 41 39 37 35 37 39 37 34
37 39 41 44 47 49 51 52 53 54 57 60 64 68 73 77 82 88 92 92 87 77 66 57 52 49 48 46 46 46 45 44 42 39 40 39 37 37 31 32 37 36 33

GEFSMA_500_meanwind_024.txt.gz
Wind_Speed
26 25 25 25 24 25 25 26 26 27 27 28 28 29 31 32 33 34 35 36 36 36 35 35 35 35 35 34 34 33 31 30 30 30 30 30 31 31 31 31 31 32 32
28 28 27 27 27 28 28 28 28 29 29 29 30 31 32 33 33 33 33 33 34 34 34 34 35 34 34 34 34 33 32 32 32 33 33 33 34 34 35 35 35 35 35
29 29 29 29 30 30 30 30 31 31 31 31 32 32 33 33 33 32 32 32 32 32 33 33 34 34 35 35 35 35 35 35 36 36 37 37 37 38 39 39 39 39 40
30 30 30 31 31 31 31 31 31 31 32 33 33 33 34 34 34 33 33 33 33 34 34 35 36 37 38 39 40 40 40 40 40 40 41 41 41 42 43 44 44 44 45
32 32 32 32 32 32 32 32 32 32 33 33 34 35 35 35 35 34 35 35 36 37 38 39 40 41 42 43 44 44 45 44 44 44 44 44 44 45 46 47 48 49 50
33 33 32 32 32 33 33 33 32 33 33 35 35 36 36 36 36 35 36 37 38 40 42 43 44 45 46 46 47 48 48 48 47 47 47 47 48 48 49 50 51 53 54
33 33 33 33 33 33 34 34 34 34 35 36 36 36 36 37 37 37 37 38 40 41 43 45 47 48 48 48 48 48 49 49 49 49 50 51 51 51 52 53 55 56 58
34 34 33 33 33 33 35 35 36 36 36 36 36 36 37 37 38 39 40 41 42 44 46 47 49 49 49 49 49 49 50 50 51 52 53 53 54 54 55 57 59 60 61
37 36 35 34 33 34 35 36 36 36 36 37 36 37 38 38 40 40 42 44 45 47 48 49 49 49 49 49 50 51 52 53 54 55 55 56 57 58 60 62 62 62 63
40 39 37 36 35 36 36 36 36 36 36 37 37 38 39 40 41 42 43 44 46 47 48 49 49 50 50 51 52 53 54 55 56 57 58 60 61 63 64 64 65 65 66
43 42 40 38 37 37 37 36 36 36 37 38 39 40 41 41 42 43 44 45 46 47 49 50 51 52 53 53 54 55 55 57 58 60 62 64 65 66 66 67 67 68 69
46 45 43 41 40 39 38 37 37 37 38 39 40 41 41 42 43 44 44 45 46 48 50 53 54 55 55 55 56 57 58 60 61 63 65 66 67 68 69 70 71 72 73
48 47 45 44 42 41 39 38 38 38 39 40 41 42 42 43 44 45 46 47 48 49 51 53 55 56 56 57 59 61 62 63 65 66 66 68 69 70 71 72 73 75 76
49 49 47 45 44 42 40 40 39 40 40 41 42 42 43 44 45 47 48 50 51 52 53 55 56 58 59 61 63 64 65 66 67 68 69 70 71 72 74 75 77 79 81
50 49 47 45 44 42 41 40 41 42 42 42 43 43 44 45 47 49 52 54 56 57 57 57 59 60 62 64 65 66 67 68 69 70 72 73 75 77 79 82 84 86 89
50 48 46 45 44 43 41 41 42 42 42 43 43 44 45 47 50 53 56 58 60 61 61 62 63 64 65 65 66 67 68 70 71 73 76 78 81 84 87 90 92 94 96
49 46 44 43 43 42 41 42 42 43 43 43 44 45 47 50 54 57 59 61 62 64 65 65 67 68 68 68 69 70 72 74 76 80 83 86 90 93 95 97 98 98 97
47 44 43 42 41 40 41 42 42 43 43 44 45 47 51 54 57 60 61 62 64 66 67 67 68 68 69 71 73 75 77 80 84 88 92 95 97 98 98 96 93 88 83
44 42 41 40 39 40 41 41 42 42 43 45 47 51 54 57 59 61 62 64 65 66 68 68 68 70 72 75 78 80 84 88 93 96 97 97 95 91 87 83 77 72 66
40 39 38 38 38 39 39 40 41 42 44 47 51 54 57 59 60 62 63 65 66 67 68 69 70 73 76 80 84 87 90 93 94 94 91 87 81 76 71 67 63 59 57
37 36 36 36 36 37 38 39 41 44 47 50 53 56 57 59 61 63 64 65 66 67 69 71 74 77 81 85 89 92 91 88 83 79 75 69 66 63 60 58 56 54 53
34 33 34 34 35 37 38 41 45 48 51 52 54 56 58 60 62 63 64 66 68 71 73 76 79 83 87 89 89 87 82 76 68 64 63 59 59 57 56 55 54 54 52
31 32 33 33 36 38 42 45 48 49 50 51 54 56 58 60 61 63 64 67 71 74 78 81 84 86 86 84 81 75 69 63 59 58 58 54 55 54 54 53 54 54 52
30 32 33 36 39 41 43 44 45 47 50 52 55 57 58 60 62 64 66 69 74 78 82 84 85 83 80 76 69 63 58 55 53 55 57 54 53 52 51 50 52 53 52
31 35 37 38 39 40 41 42 45 48 51 53 56 57 59 61 64 67 70 74 78 81 83 83 80 75 69 63 58 56 54 53 52 51 56 55 52 51 47 46 48 50 50
31 31 33 34 35 38 41 44 47 49 51 54 56 58 61 64 67 71 74 77 78 78 76 73 68 62 57 55 54 54 54 54 54 52 53 53 49 49 43 39 42 46 47

GEFSMA_500_meanwind_030.txt.gz
Wind_Speed
27 26 26 26 25 25 25 25 25 25 25 25 26 27 27 28 29 30 31 31 32 32 32 32 31 30 30 29 29 29 30 30 30 31 31 32 32 32 31 30 29 28 28
29 28 28 28 28 27 27 27 26 26 26 26 27 28 29 29 30 31 32 33 33 33 33 32 31 31 30 29 29 29 29 30 31 31 32 33 34 34 34 34 34 33 32
30 30 29 30 29 29 28 28 28 28 28 28 28 29 30 30 30 31 32 33 34 34 33 33 32 32 32 32 32 32 32 33 34 35 35 36 37 38 39 39 39 38 38
30 30 30 31 30 30 30 30 30 30 30 30 30 31 31 31 32 32 33 34 34 34 33 33 33 33 34 35 35 36 37 38 38 39 40 41 41 42 43 44 44 44 43
31 31 31 32 31 31 32 32 32 31 31 32 32 32 32 33 33 34 34 35 35 34 33 33 33 33 34 35 37 38 39 40 41 42 43 44 45 45 45 46 47 47 48
34 33 33 33 33 33 33 33 33 33 33 33 33 33 33 34 34 35 35 36 35 34 34 34 34 35 36 37 38 39 40 41 42 43 44 45 46 47 47 48 49 49 50
36 35 35 35 35 34 34 34 34 34 34 34 34 34 34 34 35 36 36 36 35 35 35 35 36 36 37 38 39 40 41 42 43 44 44 45 46 47 48 49 50 51 52
38 38 38 38 38 37 37 36 36 35 35 35 35 35 35 36 36 36 36 36 36 36 37 37 37 38 38 39 40 41 41 42 43 44 45 46 47 49 50 51 53 54 55
42 42 42 42 41 40 39 38 38 38 38 38 38 38 37 37 38 38 38 37 37 38 39 39 39 40 40 40 41 41 42 43 45 46 47 48 49 50 51 53 54 55 56
46 46 46 46 45 44 43 42 41 40 40 40 40 39 39 40 39 39 39 39 39 40 41 41 41 42 42 42 43 43 45 46 47 48 50 51 52 52 53 54 55 56 58
49 49 49 49 48 48 46 45 44 43 42 41 41 41 41 41 41 41 40 41 41 42 43 43 44 45 45 45 46 47 48 50 51 52 53 54 55 55 56 57 58 59 61
51 50 50 50 50 50 49 48 47 46 44 43 43 43 43 43 43 43 43 43 43 44 45 46 47 48 48 49 50 52 53 54 55 56 57 58 58 59 60 61 62 63 64
53 52 52 51 51 51 51 50 49 48 46 45 45 45 45 45 45 45 45 45 46 46 47 49 50 51 52 53 55 56 58 59 59 60 61 62 63 63 64 65 65 66 67
56 55 54 54 53 53 52 51 51 49 48 47 46 46 46 46 46 46 47 47 47 48 49 50 52 54 55 57 59 60 61 62 63 64 65 66 67 67 68 68 69 70 71
61 59 57 56 55 54 53 52 52 51 49 48 48 47 47 47 47 47 48 48 49 50 51 52 54 56 58 60 62 63 64 65 66 67 68 69 70 71 71 72 73 75 76
65 62 60 58 56 55 54 53 52 51 50 49 49 48 48 48 48 49 50 50 51 52 54 55 57 59 62 64 65 66 67 68 69 70 71 71 72 73 75 76 78 80 81
68 65 63 60 58 57 55 54 52 51 50 49 49 49 48 51 51 51 52 53 54 55 56 58 60 63 65 66 68 69 70 71 72 73 74 75 77 78 80 82 83 85 85
68 66 63 61 60 58 56 55 53 51 50 50 49 49 50 52 52 54 55 56 57 58 59 61 63 66 67 69 70 70 71 73 74 76 78 80 82 83 84 85 85 85 86
64 64 63 61 59 58 56 54 52 51 50 49 49 49 51 52 54 56 57 58 60 62 64 65 66 68 69 70 71 72 73 75 77 79 81 82 83 84 84 84 84 84 84
59 59 59 58 57 56 54 52 51 50 48 48 48 49 52 54 57 58 60 62 63 65 66 67 67 68 69 71 73 73 74 76 78 81 82 82 82 82 82 82 81 80 79
51 51 52 52 52 51 50 49 48 47 46 46 47 49 53 56 58 61 63 64 66 66 67 68 68 69 70 72 74 75 76 77 78 80 79 80 81 81 80 79 78 76 74
41 42 44 45 45 45 45 44 43 43 44 45 47 50 53 57 59 62 64 65 65 66 67 68 69 70 72 74 75 76 77 77 76 77 76 75 76 73 72 70 69 69 69
31 33 35 37 39 40 40 40 40 42 43 45 48 51 55 58 60 61 63 64 65 67 69 69 71 73 74 76 77 77 76 75 73 72 69 65 65 64 62 62 62 63 63
24 26 29 33 34 36 37 38 39 42 45 47 50 52 54 57 59 61 63 64 65 68 70 72 74 75 77 77 76 74 71 68 64 63 63 59 57 56 55 55 57 58 58
21 23 25 27 29 31 34 36 38 41 43 45 47 50 53 56 59 60 62 64 66 69 72 74 75 76 75 74 71 67 63 59 56 55 57 54 51 50 48 48 49 51 51
16 18 21 24 27 29 32 35 36 39 41 43 47 50 53 55 58 60 63 65 68 71 73 74 74 73 70 66 62 58 55 53 51 49 49 48 46 45 40 38 41 43 44

GEFSMA_500_meanwind_036.txt.gz
Wind_Speed
28 27 27 27 27 27 27 27 27 27 27 26 26 25 25 25 25 26 26 27 27 28 28 29 29 30 30 30 30 29 29 28 28 28 28 28 28 28 27 27 27 28 28
30 29 29 29 29 29 29 29 29 29 29 28 27 27 26 26 26 26 26 27 27 28 28 28 28 28 29 29 29 30 29 29 29 29 29 29 30 30 30 30 31 31 31
32 32 31 31 31 31 31 31 30 30 30 29 29 28 28 27 27 27 27 27 27 27 28 28 28 28 28 28 29 29 30 30 30 30 30 31 32 32 33 34 34 35 35
35 35 34 34 33 33 33 32 32 31 31 31 30 30 29 29 28 27 27 27 27 27 27 27 28 28 28 28 28 29 30 30 31 31 32 32 33 34 35 36 37 38 38
38 38 38 37 37 36 35 34 34 33 33 32 32 31 31 30 29 28 28 28 28 28 28 28 28 28 29 29 29 29 30 31 31 32 33 33 34 35 36 37 38 39 39
42 42 41 41 40 39 38 37 37 36 35 34 34 33 33 32 31 30 29 29 29 30 30 30 30 30 30 30 30 30 30 31 32 33 33 34 35 36 36 37 38 39 39
46 45 44 43 43 42 42 41 40 39 37 36 36 36 35 33 32 32 31 31 32 32 33 33 33 33 32 32 32 32 32 32 33 34 34 35 36 37 37 37 38 39 40
49 48 48 47 47 46 46 45 44 42 41 40 39 38 37 36 35 35 34 35 35 35 35 36 36 36 36 35 35 35 35 35 35 35 36 37 37 38 38 39 40 41 41
52 52 51 51 51 50 49 48 48 46 44 43 42 41 40 38 38 38 37 38 38 38 38 38 38 39 39 39 39 39 39 38 38 38 39 40 40 41 42 42 43 43 44
55 55 55 54 54 54 52 51 50 50 48 47 45 44 44 43 42 40 40 41 41 41 41 41 41 42 42 43 43 43 42 42 42 42 42 43 43 44 45 46 46 47 48
56 57 57 57 57 56 55 54 53 52 51 50 49 48 47 46 45 44 43 44 43 43 44 44 45 45 46 46 47 46 46 46 46 46 46 46 47 47 48 49 50 51 52
57 58 59 60 60 59 58 57 56 55 54 53 52 51 50 50 48 47 46 46 46 46 46 47 47 48 49 50 50 49 49 50 50 50 50 50 51 51 52 53 54 55 57
59 60 60 61 62 62 62 61 59 58 58 57 55 54 53 52 50 49 48 48 47 47 48 49 50 51 52 53 52 52 52 52 53 53 53 54 55 55 56 57 59 60 61
62 63 63 63 63 63 63 63 62 61 60 59 58 57 55 54 53 52 51 50 49 49 50 51 51 52 54 55 55 54 54 55 56 56 57 58 59 60 61 62 63 64 66
66 66 67 66 65 65 65 64 64 63 62 61 60 59 58 56 55 53 53 52 51 51 52 52 53 54 56 56 56 56 56 57 59 60 61 62 63 64 65 66 67 68 69
69 69 69 69 68 66 66 65 64 64 63 63 62 60 59 58 56 55 54 53 54 54 54 54 56 57 58 59 59 59 60 60 61 63 64 65 66 67 69 70 70 71 72
69 69 69 69 68 67 66 65 64 64 63 63 63 62 60 59 58 57 57 56 56 57 58 58 59 59 60 62 62 63 62 63 65 66 67 68 69 70 71 72 73 74 75
64 64 64 64 63 62 62 62 62 63 62 62 61 61 60 60 59 59 59 58 58 59 60 61 61 63 64 64 65 65 66 67 68 68 69 70 71 72 73 74 75 76 76
54 55 56 56 56 56 56 56 56 57 58 59 59 59 59 60 59 60 58 58 58 59 61 62 63 64 66 67 68 68 68 68 69 70 71 72 73 74 75 76 77 77 78
42 44 46 47 49 49 50 49 50 51 52 54 55 57 57 58 58 58 58 58 59 61 62 64 65 66 67 69 69 69 69 70 70 71 73 74 76 76 77 78 79 78 78
31 33 36 39 40 41 42 43 44 44 45 46 48 50 52 53 54 55 56 57 59 61 62 64 66 67 68 69 70 69 70 70 72 74 76 77 78 78 79 79 78 76 74
22 25 27 29 30 31 33 35 37 38 39 41 43 45 47 48 50 52 54 56 58 61 62 64 65 66 68 69 69 70 71 73 74 76 77 78 78 77 77 74 72 69 67
16 18 19 20 22 23 25 26 28 30 32 35 37 39 42 45 47 50 53 56 59 60 61 62 63 65 66 68 70 72 74 75 76 77 77 75 74 71 68 65 64 62 60
8 9 10 12 14 16 17 20 22 24 27 29 32 37 39 43 46 49 51 53 54 56 58 60 62 65 67 70 72 74 75 75 75 76 75 70 65 61 58 57 57 56 55
6 4 4 6 8 11 14 16 19 22 25 29 32 35 38 41 43 46 48 50 52 55 58 61 64 67 69 71 72 72 72 72 69 67 65 59 55 52 50 51 51 51 50
8 5 3 3 6 8 11 14 17 20 23 26 29 32 35 37 40 43 45 49 52 56 60 63 65 67 68 68 68 67 66 62 58 55 53 49 47 46 42 42 45 46 46

GEFSMA_500_meanwind_042.txt.gz
Wind_Speed
27 27 27 27 27 28 28 28 28 27 28 28 28 28 28 28 26 25 26 26 25 25 24 24 23 23 22 20 20 20 20 20 20 20 20 20 21 21 21 21 21 22 22
28 29 29 28 29 29 29 30 30 30 30 30 31 30 30 29 29 27 27 28 27 27 26 25 24 23 22 21 20 20 20 20 20 20 21 21 21 22 22 23 23 23 24
30 30 31 31 31 32 32 32 33 33 33 33 33 33 32 32 31 30 28 29 29 29 28 27 26 25 24 23 22 21 21 21 21 21 21 22 22 23 23 24 24 25 25
33 33 33 34 34 35 35 35 35 36 36 36 36 35 34 34 33 32 30 30 30 30 30 29 28 27 26 25 24 24 23 23 23 23 23 23 24 24 24 25 26 26 26
36 36 36 37 38 38 38 38 39 39 39 39 39 38 37 36 36 34 33 32 31 31 32 32 30 29 28 27 27 26 26 25 25 25 25 26 26 26 27 27 27 28 28
39 40 40 40 40 41 41 42 42 42 42 42 42 41 40 39 39 37 35 34 33 33 33 33 33 32 31 30 30 29 29 28 28 28 28 29 29 30 30 30 30 30 30
42 43 43 43 44 44 44 44 45 45 46 46 46 45 45 43 41 40 39 37 36 36 35 35 35 34 34 34 33 32 32 32 31 31 31 32 32 32 33 33 33 33 33
46 47 47 47 47 48 48 48 48 49 49 49 49 49 48 47 44 43 43 41 40 39 38 37 37 37 37 37 36 36 36 35 35 35 35 35 35 35 36 36 36 36 37
48 49 50 50 51 51 51 51 52 52 52 53 53 53 51 50 49 47 46 45 44 42 42 41 40 40 40 40 40 40 40 39 38 38 38 38 39 39 39 40 40 40 40
49 50 51 52 53 54 54 54 55 55 55 55 56 56 55 54 53 51 49 48 47 46 45 45 44 43 43 43 43 43 43 42 42 42 42 42 42 42 42 43 43 43 43
49 50 51 53 55 56 57 57 57 58 58 58 58 58 59 58 56 55 53 51 50 50 49 48 47 46 45 45 46 46 46 45 45 45 45 45 46 46 46 46 47 46 46
49 50 51 53 55 56 58 59 60 61 61 61 61 61 61 60 59 58 57 55 54 52 52 51 50 49 49 48 48 49 48 48 47 47 47 48 48 48 49 49 50 50 50
49 50 52 53 55 57 59 60 62 63 64 64 64 63 63 62 61 60 59 59 57 55 54 54 53 52 51 51 50 50 50 50 49 49 49 50 51 52 52 52 53 52 52
48 49 51 53 55 57 60 62 64 65 66 66 66 65 64 63 63 62 60 60 59 57 55 54 54 53 53 53 52 51 51 51 50 51 52 52 53 54 54 54 54 54 55
47 49 51 53 56 58 61 64 65 66 67 67 67 66 65 63 62 62 61 60 58 57 56 55 55 55 54 52 50 51 52 53 52 53 54 55 57 57 58 58 58 58 59
46 49 52 54 56 59 61 62 63 64 65 65 65 64 63 62 61 60 60 59 58 57 56 56 56 55 57 55 54 53 54 54 54 56 57 58 58 59 60 61 61 62 62
46 49 51 52 54 56 58 58 59 59 60 60 60 60 60 60 59 58 58 59 58 58 58 58 58 58 59 57 56 56 56 56 58 59 61 62 62 63 63 64 64 64 64
45 46 48 49 51 52 52 51 50 49 50 52 53 54 55 56 56 56 56 57 57 58 59 59 59 59 60 59 60 59 60 61 62 62 63 64 65 66 65 65 65 66 66
41 43 44 45 45 45 44 42 41 41 42 43 45 47 48 50 52 53 54 54 55 56 58 59 59 59 60 61 61 61 62 62 63 65 66 66 67 66 65 66 67 67 68
38 39 40 40 39 38 37 35 35 36 36 37 38 40 42 43 46 48 49 50 51 53 54 55 56 57 60 61 61 62 64 65 65 66 66 67 67 67 67 68 67 68 69
35 36 36 35 34 33 32 31 30 30 30 30 31 33 34 36 39 41 42 44 46 47 49 52 54 55 57 58 59 60 62 62 63 64 65 66 66 67 68 69 70 70 71
32 33 32 31 29 28 28 26 25 25 24 24 25 26 28 29 31 33 35 39 41 44 46 48 51 52 54 56 57 59 60 61 62 63 64 65 67 68 69 70 71 71 72
30 29 28 26 26 25 24 22 21 20 19 18 19 20 21 23 26 28 31 34 36 39 42 45 48 50 52 53 55 56 57 59 61 63 64 66 67 67 68 69 69 68 68
26 26 25 24 23 21 20 20 18 16 13 12 13 15 16 19 21 24 27 31 34 36 39 42 44 47 49 51 53 55 58 61 63 65 65 65 65 64 64 64 63 61 59
24 23 22 22 21 19 18 18 17 15 13 12 13 14 15 17 20 23 26 28 31 34 37 40 42 45 49 52 55 58 60 61 63 64 63 61 60 58 56 55 53 51 49
22 21 20 20 19 19 18 17 16 15 14 14 14 16 17 18 21 23 26 29 32 35 38 42 45 48 51 54 57 59 60 61 61 60 58 55 53 50 46 46 46 45 43

GEFSMA_500_meanwind_048.txt.gz
Wind_Speed
24 24 25 25 26 27 27 28 28 28 28 29 30 30 30 29 29 29 29 29 29 29 29 29 28 28 27 27 26 25 24 23 22 21 20 20 19 19 19 19 18 18 17
26 26 26 27 28 29 29 30 30 30 30 31 31 32 32 32 31 31 31 31 31 31 30 30 30 30 29 28 28 27 26 25 24 24 23 22 21 21 21 20 20 20 19
28 28 28 29 30 31 31 32 32 33 33 34 34 35 35 35 34 34 34 34 33 33 32 32 32 32 32 31 30 29 28 27 27 26 25 25 24 23 23 22 21 21 21
31 31 30 31 32 33 33 34 35 36 37 37 38 38 38 38 38 37 37 36 36 36 35 35 34 34 34 34 33 32 31 30 29 29 28 27 26 26 25 24 23 23 23
33 33 33 34 35 35 36 37 38 39 39 40 41 41 42 42 42 41 40 39 39 39 38 38 37 36 36 36 35 35 34 33 32 32 31 30 30 29 28 28 27 26 26
35 35 36 36 38 38 39 40 41 42 42 43 44 44 45 45 45 44 44 44 43 42 42 41 40 39 39 38 38 38 37 36 36 35 34 34 34 33 32 32 31 30 30
37 38 38 39 40 41 42 43 44 44 45 46 47 47 48 48 48 48 48 48 47 46 45 44 43 42 42 41 41 41 40 39 39 38 38 37 37 36 36 35 35 34 33
40 41 41 42 43 44 44 45 46 47 47 48 49 50 50 50 49 51 51 51 50 49 48 47 47 46 45 45 44 44 43 43 42 41 41 41 41 40 40 39 39 39 38
42 43 44 45 46 46 47 47 48 49 49 50 51 52 53 52 52 52 52 53 53 52 51 50 49 49 49 48 47 46 46 45 45 45 44 44 44 44 43 42 42 42 41
43 44 46 47 47 48 48 49 49 50 51 51 52 52 54 54 55 55 55 55 55 54 54 53 52 52 51 51 50 49 48 48 48 48 48 47 47 46 46 45 45 45 44
45 45 46 47 48 48 49 49 50 51 51 51 52 53 54 55 56 57 58 57 57 57 56 57 56 55 54 53 52 51 50 50 50 50 49 49 48 47 47 47 47 47 47
46 46 47 48 48 48 48 48 49 50 50 51 53 54 55 57 58 60 61 60 60 59 59 59 58 57 56 55 54 53 53 52 51 52 52 51 50 50 49 48 47 49 49
46 47 47 47 47 47 47 47 48 49 50 52 53 55 56 58 60 61 63 63 63 61 61 60 60 59 59 58 57 56 54 52 52 53 53 53 52 51 50 48 48 49 49
46 46 46 46 46 46 46 47 48 49 51 53 54 56 57 58 60 61 62 62 63 62 61 60 60 60 59 58 58 58 56 55 52 53 52 51 49 48 48 47 46 47 48
44 44 44 44 44 44 45 45 46 48 50 52 53 54 56 57 59 59 60 60 60 61 59 57 56 55 57 58 58 58 56 57 56 54 54 49 46 46 46 45 45 45 46
42 42 42 42 42 42 43 43 44 46 48 49 51 51 53 54 53 53 53 54 55 56 56 55 54 53 52 54 56 57 57 56 56 54 53 50 47 45 44 45 46 46 48
40 40 40 40 40 40 40 41 43 44 46 47 47 48 49 48 47 48 47 47 48 47 47 47 48 47 48 48 51 53 54 54 54 55 55 54 52 51 50 49 50 51 52
37 37 37 37 38 38 39 40 41 42 44 44 45 44 43 42 42 42 42 41 40 41 42 42 44 44 44 45 46 48 50 51 52 55 55 55 55 54 54 54 54 54 55
35 35 35 36 37 38 38 39 40 40 41 41 41 40 38 37 37 37 37 36 35 35 35 35 37 39 40 42 43 44 46 48 50 53 54 54 55 55 55 55 55 56 56
33 33 34 35 36 36 37 38 38 38 37 37 37 36 34 33 33 33 32 31 30 30 32 32 33 34 36 39 41 43 45 47 49 51 52 53 54 54 54 54 54 55 56
31 32 33 34 34 34 35 35 35 35 34 34 33 32 31 30 30 29 29 27 26 26 26 27 29 30 32 34 37 39 42 44 46 48 49 51 52 53 54 54 55 55 56
30 31 31 32 32 33 33 33 32 32 31 30 30 29 28 27 27 26 25 25 24 23 23 24 25 27 29 33 35 38 40 42 44 46 48 49 51 52 54 55 56 57 58
28 29 29 29 30 30 30 30 30 29 28 27 26 26 25 25 24 24 24 23 23 23 23 24 24 26 28 31 34 36 38 41 43 45 47 49 51 53 55 56 57 58 58
26 26 27 27 28 28 28 28 27 27 26 25 25 24 24 24 24 24 24 25 24 25 25 26 27 28 30 32 34 37 39 42 44 47 49 51 53 55 57 58 59 59 59
24 25 26 26 26 27 27 26 26 25 25 25 25 25 25 25 25 26 26 26 26 27 28 29 30 32 34 35 37 40 42 45 47 50 51 53 55 57 58 59 59 58 57
24 24 25 25 26 26 26 25 25 25 25 25 26 26 26 27 27 27 28 29 30 31 32 33 35 36 38 39 41 43 46 48 50 52 53 54 56 57 57 57 56 55 54

GEFSMA_500_meanwind_054.txt.gz
Wind_Speed
26 26 25 25 25 25 25 26 27 27 28 29 30 31 32 33 33 34 35 35 35 36 36 35 35 35 34 34 33 33 33 32 32 31 30 29 28 27 26 25 24 23 22
27 27 27 27 27 27 27 28 29 29 30 31 32 33 34 35 36 36 37 37 38 38 38 38 38 38 37 36 36 35 35 34 34 33 33 31 31 30 29 28 26 25 24
29 29 29 29 29 29 29 30 31 31 33 34 35 36 37 38 38 39 39 40 40 41 41 41 41 41 40 40 39 38 37 37 36 36 35 34 33 33 32 30 29 28 27
31 30 30 31 31 31 31 32 33 34 35 37 38 39 40 41 41 42 42 43 43 43 44 44 44 44 43 43 42 41 40 40 39 38 37 37 36 35 35 34 32 31 30
32 32 32 32 33 33 34 35 36 37 38 40 41 42 43 44 44 44 44 45 45 45 46 46 46 46 45 45 44 43 43 42 42 41 40 39 39 38 37 36 36 34 33
34 34 34 34 35 35 36 37 38 39 41 42 44 44 45 46 46 46 46 47 47 47 47 47 47 46 46 46 45 45 44 44 43 43 43 42 41 40 40 39 38 37 36
36 36 36 36 37 38 38 39 41 42 43 45 47 47 47 47 47 47 48 47 47 47 47 47 47 47 47 47 47 47 47 46 45 45 45 44 43 43 42 42 41 40 39
38 38 38 38 39 40 41 42 43 45 46 48 49 49 48 47 47 47 47 47 47 47 47 47 48 47 48 48 49 49 49 49 48 47 47 47 46 46 45 44 43 42 41
40 40 40 41 42 42 43 44 46 48 49 50 50 51 51 49 48 46 46 46 46 47 47 48 49 50 51 51 52 52 52 51 51 50 49 49 49 48 48 46 45 44 44
42 42 42 43 43 44 45 47 49 50 51 51 51 51 51 50 50 48 46 46 46 47 48 50 51 52 53 53 53 53 54 54 54 53 52 51 51 50 49 49 48 47 46
44 44 44 44 45 46 48 49 50 51 51 51 51 50 50 49 49 49 47 46 47 48 50 52 53 54 54 54 54 54 55 56 56 55 54 54 53 53 51 50 50 49 48
45 45 45 46 47 48 50 50 51 51 51 50 50 49 49 48 48 48 47 47 48 49 51 53 54 54 54 54 54 55 55 56 56 56 56 55 54 53 53 53 50 50 48
46 46 47 48 49 50 50 50 50 49 49 48 48 48 48 47 47 47 47 47 48 49 50 51 52 53 52 52 53 54 55 55 55 55 55 55 56 55 54 53 52 52 51
47 47 48 49 50 50 50 49 48 47 47 46 46 46 46 46 46 46 47 48 49 48 47 48 48 49 49 50 50 50 51 52 52 51 51 52 53 54 53 51 50 50 49
48 48 49 49 49 49 48 47 46 46 45 45 44 44 44 44 45 46 47 48 48 46 45 44 45 45 45 46 45 44 45 46 46 46 45 47 48 51 50 49 48 48 46
48 48 49 49 48 46 45 45 44 44 44 43 43 43 43 44 44 45 46 45 45 44 43 42 41 40 40 39 39 39 39 39 38 38 39 43 44 46 46 47 47 47 47
48 48 47 46 44 43 43 43 43 42 42 42 42 42 43 43 43 44 43 42 42 41 40 38 37 36 35 34 34 34 32 31 30 31 33 36 38 40 41 42 43 45 46
46 45 43 42 42 41 41 41 41 41 41 41 41 42 42 42 41 41 40 40 39 38 37 35 34 32 32 31 30 29 29 27 26 28 28 30 32 35 37 38 40 42 43
42 41 41 40 40 39 39 39 39 39 39 39 40 40 40 40 39 38 38 37 37 35 34 33 32 30 29 29 28 27 26 26 26 27 28 29 30 32 34 36 38 40 42
39 38 38 37 37 37 37 37 36 37 38 38 38 38 38 37 37 36 36 35 34 33 32 31 30 29 29 28 28 27 27 27 27 28 29 30 30 31 33 36 38 39 41
35 35 34 34 34 34 34 34 35 35 35 36 36 36 36 36 35 35 34 33 32 31 31 30 30 30 30 29 29 29 29 29 29 30 30 30 31 33 34 36 37 39 41
32 31 31 31 31 31 32 33 33 33 33 34 34 34 34 34 34 33 33 32 32 31 31 31 31 31 31 31 31 30 30 31 31 31 32 32 34 35 36 37 39 40 42
29 29 28 28 29 29 30 30 31 31 32 33 33 33 33 33 33 32 32 32 32 32 32 32 32 33 33 33 33 33 33 34 34 34 35 36 37 38 40 41 43 44 45
26 26 26 26 27 28 28 29 30 31 31 32 32 32 32 32 32 32 32 32 32 33 33 33 34 34 35 35 35 36 37 37 38 39 39 40 42 43 45 45 46 48 49
24 24 24 25 25 26 27 28 29 30 31 32 32 32 32 32 32 33 33 33 33 34 34 35 36 36 37 37 38 39 39 40 41 42 43 44 46 47 49 49 50 51 52
22 23 23 24 25 27 28 29 30 31 31 32 32 33 33 33 33 33 34 34 35 36 36 36 37 38 38 39 40 41 42 43 44 45 46 48 49 49 50 51 52 52 53

GEFSMA_500_meanwind_060.txt.gz
Wind_Speed
19 19 20 20 20 20 21 21 22 23 24 25 26 27 28 29 30 31 32 33 35 35 36 37 37 37 37 36 36 35 35 34 34 33 33 33 32 32 31 31 30 29 28
22 22 22 23 23 23 23 24 24 25 26 27 28 29 30 31 32 33 35 36 37 38 39 39 39 38 38 37 37 36 35 35 34 34 33 33 33 32 32 32 31 30 29
25 25 25 26 25 25 26 26 27 28 29 30 30 31 32 33 34 36 37 39 40 41 41 41 41 40 39 38 37 37 36 36 35 34 34 34 33 33 33 33 33 32 31
28 28 28 29 28 28 28 29 30 30 31 32 33 34 35 36 37 38 40 41 42 43 43 42 41 41 40 39 38 37 37 36 36 35 34 34 35 35 35 35 34 34 34
31 30 30 31 31 31 31 32 33 33 34 34 35 36 37 38 39 41 43 44 44 45 44 43 42 42 41 39 38 38 37 37 36 36 36 36 36 36 37 37 36 36 36
34 33 33 33 34 34 34 34 35 36 36 37 38 38 39 40 41 43 45 46 46 45 45 44 43 42 41 40 39 38 38 37 37 38 38 39 39 39 39 39 39 38 38
37 36 36 36 36 36 36 37 38 38 39 40 41 41 41 42 43 45 46 47 46 45 45 44 43 42 41 41 40 39 39 39 40 40 40 40 41 41 41 41 41 41 41
40 39 39 38 38 39 39 39 40 41 41 42 43 44 43 43 44 45 47 47 46 45 44 44 43 42 42 42 41 41 41 41 42 42 42 42 43 43 43 43 43 43 43
43 42 42 41 41 41 41 41 42 43 43 44 44 46 46 46 46 45 45 45 45 45 44 44 43 43 43 42 42 42 42 43 43 43 43 43 44 43 43 44 45 46 46
45 44 43 43 42 43 43 43 44 44 45 45 46 46 48 49 49 47 45 43 43 43 43 43 44 43 43 43 43 43 43 44 44 43 43 44 44 44 44 45 46 46 47
46 45 44 44 44 44 44 44 45 45 46 47 47 47 48 49 49 48 46 44 43 43 43 43 43 42 43 43 43 44 44 44 43 43 43 43 43 44 44 45 46 47 47
47 46 46 46 46 46 45 45 46 46 47 47 48 48 48 48 47 46 45 44 43 43 43 43 43 43 43 44 44 44 44 43 43 42 41 40 41 42 43 44 44 45 45
47 47 47 47 47 47 46 47 47 47 48 48 48 48 48 47 46 45 44 44 43 42 42 42 43 43 43 44 44 44 43 42 41 39 38 38 38 40 40 41 41 43 45
48 48 48 47 47 47 47 47 47 47 48 48 48 48 47 46 45 44 44 43 42 42 42 42 42 43 43 43 43 42 41 39 38 37 35 35 36 36 36 36 37 39 41
48 48 48 48 48 48 47 48 48 48 48 48 47 46 46 44 43 43 43 43 42 41 41 41 41 41 42 41 40 39 37 36 35 34 33 33 33 33 33 32 34 34 35
48 48 48 47 47 47 48 48 48 48 47 46 46 45 44 42 42 42 42 41 41 40 40 40 40 40 40 39 38 36 35 34 32 32 31 30 31 31 32 30 30 30 32
49 49 48 48 48 47 47 47 46 46 45 45 44 43 42 41 41 40 40 40 39 39 39 38 38 38 37 37 35 34 33 32 31 31 30 29 29 29 28 28 28 29 29
50 49 49 48 47 46 46 46 45 45 44 43 42 41 40 40 39 38 38 38 37 37 37 37 37 36 36 35 34 32 32 31 31 30 29 28 28 27 27 27 28 27 28
48 48 47 47 46 45 45 44 43 43 41 41 40 39 38 38 37 37 36 36 36 36 36 36 36 35 35 33 33 32 32 31 31 30 29 28 28 27 28 28 28 29 28
45 45 45 44 44 43 43 41 40 39 38 38 37 36 36 35 35 34 34 34 34 34 34 34 34 34 33 33 33 32 32 31 31 31 30 30 29 29 29 29 29 29 30
42 42 42 41 41 40 40 38 38 36 36 35 34 34 34 33 33 32 32 33 33 33 33 33 33 33 33 33 32 32 32 32 32 32 32 32 31 31 31 31 32 32 33
40 40 39 39 38 38 37 36 35 34 33 33 32 31 31 31 31 31 31 32 32 33 33 33 33 33 33 33 32 33 33 33 33 34 34 34 34 34 34 35 35 36 36
37 37 36 36 36 35 35 34 33 31 31 30 30 29 29 29 30 30 31 32 32 32 32 33 33 33 33 33 33 34 34 35 35 35 36 36 36 37 37 38 38 39 40
34 35 34 34 34 33 32 31 30 29 29 29 28 28 28 28 29 30 30 31 31 32 32 33 33 34 34 35 35 35 36 36 37 37 37 38 38 39 40 41 41 42 43
32 32 32 32 31 30 29 29 28 28 27 27 27 28 28 29 29 30 30 31 32 32 33 34 34 35 35 36 37 37 38 38 38 39 39 40 41 42 42 43 44 44 45
30 30 30 29 29 28 28 27 27 27 27 28 28 28 29 29 30 31 31 32 33 33 34 35 36 36 37 38 38 39 39 40 40 41 41 42 43 44 45 46 46 47 47

GEFSMA_500_meanwind_066.txt.gz
Wind_Speed
19 18 17 17 17 17 17 18 18 19 20 21 22 22 23 25 26 27 28 29 31 32 33 34 35 36 36 37 37 36 35 34 33 33 32 31 30 30 29 28 27 26 25
21 20 20 20 19 19 20 20 21 21 22 23 24 25 25 27 28 29 30 31 32 34 35 36 37 37 38 38 38 36 36 35 34 33 32 32 31 30 29 28 28 27 26
24 23 23 22 22 22 22 23 23 24 24 25 26 27 28 29 30 31 32 33 34 35 37 38 38 39 39 39 38 37 37 36 35 34 33 32 32 31 30 29 29 29 28
27 26 26 26 25 25 25 26 26 26 27 28 29 29 30 31 32 33 35 36 37 37 38 39 40 41 41 40 39 38 37 37 36 35 34 33 32 32 31 31 31 31 30
31 30 30 29 29 28 28 29 29 29 30 31 31 32 33 34 35 35 36 38 39 39 40 40 41 42 42 41 40 39 38 38 37 36 36 35 34 33 32 32 32 32 31
35 34 34 33 32 32 32 32 32 32 33 34 34 34 35 36 37 37 38 39 40 41 42 42 43 43 43 42 40 40 39 38 37 37 37 36 35 34 34 33 34 34 33
38 38 37 36 36 35 35 36 36 36 36 37 37 37 37 37 38 39 39 40 42 42 43 43 44 43 43 42 41 41 40 38 38 38 37 37 36 36 36 35 35 35 34
42 41 41 40 39 39 39 39 39 39 39 39 40 40 39 38 39 40 40 41 42 43 44 45 44 44 44 43 42 41 40 39 38 38 37 37 37 37 37 36 36 35 35
44 44 44 43 43 43 43 43 43 42 42 41 42 43 43 41 40 40 41 41 42 43 44 45 45 44 44 43 42 41 40 39 38 38 37 37 37 37 37 37 37 36 34
46 47 47 47 47 46 46 45 45 44 44 43 43 44 44 44 44 42 42 42 43 44 44 45 45 44 43 43 42 41 39 39 38 37 37 37 36 37 37 37 36 35 34
49 49 49 49 49 48 47 47 46 46 45 45 45 45 44 45 44 44 43 44 45 44 45 45 45 44 43 42 41 40 39 38 37 37 36 36 36 36 36 35 35 34 34
49 49 50 49 49 48 48 47 47 46 46 46 46 46 45 44 44 44 44 45 45 45 45 45 44 43 42 42 41 40 38 37 37 36 35 35 35 35 34 33 33 32 33
49 49 49 49 49 49 49 48 48 47 47 47 46 46 45 45 45 45 45 44 44 44 45 44 44 43 42 41 39 38 37 37 36 35 34 33 33 33 32 31 32 32 32
51 50 49 49 49 49 49 48 48 47 47 47 46 46 46 45 46 46 45 45 44 44 44 43 42 42 41 39 38 37 36 36 35 34 33 33 32 31 29 29 30 31 31
51 51 50 49 49 49 49 48 48 48 47 47 47 46 46 46 46 45 45 45 44 44 43 42 41 40 38 37 37 36 35 34 33 33 32 31 30 29 29 28 28 28 29
51 52 51 50 50 50 49 49 49 48 48 48 47 47 47 46 46 45 45 45 44 43 41 40 39 37 36 36 35 34 33 33 32 31 31 29 29 28 28 27 27 26 27
52 51 51 51 51 51 50 50 49 49 48 48 48 47 46 46 45 45 45 44 42 41 39 38 37 35 34 34 33 32 32 31 31 30 29 29 28 28 27 27 27 27 27
52 51 51 51 51 51 51 50 50 49 48 48 47 47 46 45 45 44 43 41 40 38 37 35 34 33 33 32 31 31 31 30 30 29 29 29 28 28 27 27 27 26 26
49 49 50 50 50 49 49 48 48 47 47 46 45 45 45 44 43 42 40 38 37 36 34 33 32 32 31 31 31 30 30 29 29 29 29 28 28 28 27 27 27 27 27
47 47 48 48 47 46 46 46 45 45 45 44 44 43 43 42 41 39 37 35 34 33 32 31 31 30 30 30 30 29 29 29 29 29 29 29 29 29 29 29 29 29 29
45 45 45 45 45 45 45 45 44 44 44 43 42 41 40 39 38 36 34 33 32 31 31 30 30 30 30 30 30 29 29 30 30 30 30 30 30 31 31 31 31 31 31
42 43 43 43 43 43 43 43 43 42 42 41 39 38 37 36 35 34 33 31 30 30 29 29 29 30 30 30 29 30 30 31 31 32 32 32 32 32 33 33 33 33 33
40 40 41 41 41 41 41 41 40 39 38 37 36 35 35 34 32 31 30 30 30 29 29 29 30 30 30 30 30 31 32 32 33 33 33 33 34 34 34 35 35 36 36
38 38 38 39 39 38 38 37 36 36 35 34 33 32 32 31 30 29 29 30 30 29 30 30 30 30 31 31 32 33 33 34 34 35 35 35 35 36 36 37 38 38 38
37 36 36 36 36 36 36 35 34 32 32 31 31 30 29 29 29 30 30 30 30 30 31 31 31 32 33 33 34 35 35 36 36 36 37 37 37 38 38 39 39 40 40
34 34 33 33 33 33 32 32 31 30 29 29 29 29 29 29 30 30 30 30 31 31 32 32 33 33 34 35 36 37 37 38 38 38 38 38 39 39 39 40 41 42 42

GEFSMA_500_meanwind_072.txt.gz
Wind_Speed
23 22 21 21 20 19 19 18 18 18 18 18 19 19 20 20 21 22 24 25 26 27 28 29 30 30 31 31 32 33 33 33 33 33 32 32 32 31 30 29 28 27 26
24 24 24 23 22 22 21 21 20 20 20 20 21 21 22 23 24 25 26 27 28 29 31 31 32 32 32 32 33 34 34 34 34 34 33 33 33 32 31 30 29 28 27
26 26 26 26 25 24 24 23 23 22 22 23 23 24 24 25 26 28 29 30 31 32 33 33 33 33 33 33 34 34 35 35 35 35 35 35 34 33 32 31 30 28 27
27 28 28 28 27 27 26 26 26 26 26 26 26 27 27 28 29 31 31 32 33 34 34 35 35 34 34 34 34 34 35 36 36 36 36 35 35 34 33 32 30 29 28
29 29 30 30 30 30 30 30 29 29 29 29 29 30 31 32 33 34 34 35 35 36 36 36 36 35 34 34 34 35 36 36 37 37 36 36 35 34 33 32 31 30 29
31 31 32 32 32 32 33 33 33 32 33 33 32 33 34 35 36 37 37 37 38 38 38 37 36 36 35 35 36 36 37 37 37 37 37 37 35 34 33 32 31 30 30
32 32 33 33 34 35 36 36 36 36 37 37 37 36 37 38 38 39 40 40 40 40 39 38 37 37 37 37 37 37 37 37 38 38 38 36 36 35 34 33 32 31 30
35 35 35 35 35 36 38 38 39 39 39 40 41 41 40 39 41 41 42 42 41 41 40 39 38 38 38 38 38 38 38 38 38 38 38 36 36 35 34 33 32 31 30
38 38 38 38 38 39 40 40 40 41 41 42 44 44 44 43 42 41 42 42 42 42 40 39 39 39 38 38 38 39 39 39 39 38 38 36 35 34 33 33 32 31 30
41 41 41 41 41 42 42 43 43 43 44 45 45 46 47 46 44 42 41 42 42 41 40 40 40 39 39 39 39 39 39 39 39 38 38 36 35 33 33 32 32 31 30
43 43 44 44 43 44 45 45 46 46 47 47 46 46 46 45 45 45 43 42 42 42 41 40 40 40 40 40 40 40 40 39 39 38 37 35 34 33 32 31 31 30 29
46 46 47 47 47 48 48 48 48 47 46 47 46 46 45 46 46 46 45 44 43 43 42 42 42 41 41 41 41 40 40 39 38 37 36 34 32 32 31 30 29 29 29
47 48 48 48 48 49 49 49 48 48 48 48 48 47 48 47 47 46 46 45 45 44 44 43 43 42 41 41 41 41 40 39 38 36 34 32 31 30 29 29 28 28 28
47 48 48 49 49 50 50 49 49 50 50 50 50 50 49 48 47 47 46 46 45 45 45 44 43 43 43 42 42 41 40 39 36 34 32 31 30 29 28 28 27 27 27
50 50 50 50 51 52 52 52 52 51 51 51 51 51 50 49 48 48 47 47 46 46 45 44 44 44 43 42 41 40 39 37 35 32 31 29 28 27 27 26 26 26 25
50 52 52 53 53 53 53 53 53 53 53 53 52 51 51 50 49 48 48 47 47 46 45 45 44 44 42 41 40 39 37 35 33 31 29 28 27 27 26 26 25 25 24
52 52 53 53 53 53 53 53 52 52 52 52 52 51 51 50 49 48 48 47 46 46 45 45 44 42 41 40 39 37 35 33 31 30 28 27 27 26 26 25 25 24 24
50 50 50 51 51 51 51 51 51 51 50 50 50 49 49 49 48 47 46 46 45 45 44 43 42 41 39 38 36 34 32 31 30 29 28 27 27 26 25 25 25 25 25
47 47 48 48 48 48 49 49 49 49 49 49 48 48 47 46 46 45 44 44 44 43 42 41 40 38 37 35 33 32 32 30 29 28 27 27 26 26 26 26 26 26 26
45 45 45 46 46 46 47 48 48 48 48 47 46 46 45 44 44 43 43 42 41 40 40 39 37 36 34 33 32 31 31 30 29 28 27 27 27 26 26 26 26 27 27
43 44 44 44 44 44 44 45 45 45 45 44 43 43 43 42 42 41 40 40 39 38 37 36 34 33 32 32 31 31 30 29 29 28 28 27 27 27 27 28 28 28 28
42 43 43 43 42 43 43 43 43 43 43 42 41 41 41 41 40 39 39 38 37 35 34 33 33 32 32 31 31 30 30 29 29 29 29 28 29 29 29 29 29 30 30
42 42 42 41 41 41 42 42 43 42 41 40 40 40 39 39 38 38 37 36 35 34 33 32 32 32 31 31 31 30 30 30 30 30 30 30 30 31 31 31 31 32 32
41 41 41 41 41 41 41 41 41 40 39 39 39 38 37 37 37 36 35 34 33 32 31 31 31 31 30 30 31 31 31 31 31 31 31 32 32 33 33 33 34 34 34
40 40 40 40 40 40 39 39 38 38 37 37 36 36 35 35 34 33 32 31 31 30 30 30 30 30 30 31 31 31 31 31 32 32 33 33 34 34 35 35 36 36 36
40 39 39 39 38 38 37 36 36 35 34 33 33 32 32 32 31 31 31 30 30 29 29 29 30 30 31 31 31 32 32 32 33 34 34 35 35 36 36 37 37 37 38

GEFSMA_500_meanwind_078.txt.gz
Wind_Speed
24 23 24 24 23 23 22 21 21 20 20 20 20 20 20 21 21 22 22 23 24 25 25 27 28 30 31 32 33 34 34 34 34 33 33 32 32 32 31 32 32 31 30
24 24 25 25 25 25 24 24 23 23 23 23 23 23 23 23 24 24 25 26 27 28 29 30 31 32 33 34 35 35 35 35 35 34 34 33 33 32 32 33 33 32 31
25 25 26 26 26 26 26 26 26 26 26 26 26 26 26 26 27 28 28 29 30 31 32 33 34 35 36 36 37 37 37 36 36 35 35 34 33 33 33 33 33 32 31
27 27 27 27 27 27 28 28 28 28 28 28 29 29 29 30 31 31 32 33 33 34 35 36 37 37 38 38 39 38 38 37 37 36 36 35 34 34 34 34 34 33 32
27 27 27 27 27 28 29 30 30 31 31 31 31 32 32 33 34 35 36 36 37 37 38 39 39 40 40 40 40 39 39 38 38 37 36 36 35 35 34 34 34 33 32
29 28 28 29 29 30 30 31 32 33 33 34 34 34 35 35 37 38 39 39 40 40 41 42 42 42 42 41 41 40 39 39 38 37 37 36 36 36 36 35 34 34 32
30 29 30 30 31 31 32 33 34 34 35 36 36 37 37 38 39 40 40 41 42 43 43 44 44 43 42 42 41 41 40 39 39 38 37 37 37 37 36 36 35 34 33
32 32 32 32 32 33 34 35 36 37 37 38 38 39 38 38 40 41 42 43 44 45 45 45 45 43 42 42 42 41 41 40 39 39 38 38 37 37 36 36 35 34 33
34 35 35 35 35 36 36 37 37 38 38 39 39 40 40 40 40 41 43 44 45 46 46 46 44 44 43 43 42 42 41 41 40 40 39 38 38 37 37 36 35 34 33
36 36 37 38 38 39 39 39 40 40 41 41 42 43 43 44 44 43 43 45 46 45 45 45 44 43 43 43 43 42 42 42 41 41 40 39 38 37 37 36 35 33 32
37 38 38 38 39 40 41 41 42 43 43 43 43 44 44 45 46 46 45 45 45 45 45 45 45 44 44 44 44 43 43 43 42 41 40 39 38 37 37 36 34 31 30
38 39 39 39 40 41 41 42 43 44 45 45 46 46 46 47 47 47 47 46 46 46 46 46 46 46 45 45 45 44 44 43 42 41 41 40 38 37 36 35 32 30 29
39 39 40 41 42 43 43 43 44 45 45 45 46 47 47 48 48 48 48 48 48 47 47 47 47 47 47 47 46 45 44 43 43 42 41 39 38 37 35 33 31 29 28
40 41 41 42 42 43 44 44 45 45 46 46 47 48 49 50 50 51 51 51 50 50 49 49 49 49 48 48 47 46 45 44 43 42 40 39 37 35 33 31 29 28 27
42 42 43 43 44 44 46 47 47 48 49 50 50 51 52 52 52 52 52 52 52 51 50 50 50 50 49 48 47 46 44 43 42 40 39 38 36 33 31 30 28 27 26
44 45 45 46 46 47 48 48 49 50 50 51 51 51 51 52 52 52 51 51 51 50 49 49 48 48 48 47 46 45 43 42 40 39 37 35 33 31 30 29 27 27 26
45 46 47 47 48 48 49 49 49 49 50 50 50 50 50 50 50 50 50 49 49 49 48 47 47 46 45 45 44 42 41 39 38 36 35 33 31 30 29 27 26 26 25
46 47 48 48 49 49 49 49 49 49 49 49 49 49 49 49 48 48 48 48 48 48 47 46 45 44 43 42 41 40 38 37 36 35 33 31 30 29 28 27 26 25 24
47 47 47 47 47 48 47 47 48 48 48 48 47 47 46 46 46 46 46 46 47 46 45 44 43 42 40 39 38 37 36 35 34 32 31 30 29 28 27 26 26 25 24
47 47 46 46 46 46 46 46 46 46 46 46 45 45 45 45 45 45 45 45 44 44 43 42 41 40 38 38 36 35 34 34 32 30 30 29 28 28 27 27 26 25 25
47 46 45 45 45 46 45 45 45 45 44 44 44 44 44 44 44 44 43 43 43 42 41 40 39 38 36 35 34 34 33 32 31 29 29 28 28 27 27 27 26 26 25
46 45 45 45 45 44 44 44 44 43 43 43 43 43 43 43 43 43 42 42 41 40 39 38 37 36 34 34 33 32 31 30 29 29 28 28 28 28 27 27 27 26 26
46 45 45 45 44 44 44 44 44 43 43 43 43 43 43 43 43 42 41 40 39 38 38 37 35 34 33 32 31 31 30 29 29 29 28 28 28 27 27 27 27 27 27
46 46 45 45 45 45 44 44 43 43 43 42 42 42 42 42 41 40 39 37 37 36 35 33 32 32 31 31 31 30 29 29 29 29 29 28 28 28 28 28 28 28 29
46 46 45 45 45 44 44 43 42 42 41 41 41 41 41 40 39 37 36 35 34 33 32 31 31 30 30 30 30 29 28 28 28 28 28 28 28 28 28 29 29 30 30
45 45 44 44 43 43 42 41 41 41 41 40 40 39 38 38 37 35 34 33 32 31 30 30 29 29 28 28 27 27 27 27 28 28 28 29 29 29 29 30 31 31 32

GEFSMA_500_meanwind_084.txt.gz
Wind_Speed
33 32 30 29 28 28 27 26 26 25 24 24 23 23 22 22 22 22 22 23 23 24 25 26 26 27 28 29 30 32 33 34 35 35 35 35 34 34 33 32 31 31 30
35 33 32 31 30 29 29 28 28 27 27 26 25 25 25 25 25 25 25 26 26 27 28 28 29 30 31 32 33 34 35 36 36 36 36 36 35 34 34 33 32 31 30
36 35 34 33 32 31 30 30 30 29 29 29 28 27 27 27 27 28 28 29 29 30 30 31 32 33 34 34 35 36 37 37 37 37 37 36 36 35 34 34 33 32 31
38 36 35 34 33 32 32 31 31 31 30 30 29 29 29 29 29 30 30 31 32 32 33 34 34 35 36 37 37 38 38 39 39 38 37 36 36 36 35 34 34 32 32
39 37 37 36 35 34 33 33 32 32 31 31 31 31 31 31 32 32 33 33 34 35 35 36 36 37 38 38 39 39 40 40 39 38 37 37 36 36 35 35 34 33 33
40 39 38 37 36 35 35 34 34 33 33 33 33 33 33 33 33 34 34 35 35 36 37 38 38 39 39 40 41 41 41 40 39 38 38 37 37 36 36 35 35 34 34
42 41 39 38 36 36 36 36 36 35 35 34 34 34 34 35 35 35 35 36 37 37 38 39 39 40 41 41 41 42 41 40 39 39 39 38 38 37 37 37 36 36 35
43 42 41 40 38 37 37 37 37 37 36 35 35 35 35 35 35 36 36 37 38 39 39 40 40 41 42 42 42 42 42 41 41 40 40 39 39 38 38 38 37 36 35
41 40 40 39 38 37 37 37 37 37 37 37 36 36 36 36 36 36 38 39 40 41 41 41 42 42 42 42 42 42 42 43 43 42 42 41 41 40 40 39 38 37 36
39 39 39 39 38 38 38 38 38 38 38 37 37 37 38 38 37 37 38 39 41 41 42 42 43 43 43 44 44 44 44 44 44 44 44 43 43 42 41 40 39 38 36
42 41 40 40 40 41 41 40 39 39 38 38 38 38 38 38 39 39 39 40 41 41 42 43 44 44 45 45 46 46 46 46 46 46 46 45 44 43 42 41 40 38 36
45 44 44 43 43 43 42 41 39 39 38 38 38 38 38 38 39 40 40 40 41 42 43 44 45 46 47 47 48 48 48 48 48 47 47 46 45 44 42 41 40 38 36
43 43 44 45 44 43 42 41 40 39 38 37 38 38 38 38 39 40 41 42 43 44 45 46 47 48 48 48 48 48 48 48 48 47 46 45 45 44 42 41 39 37 35
38 38 40 40 41 41 40 39 39 37 37 38 38 38 39 40 41 42 43 44 45 45 46 46 47 47 48 48 48 48 47 47 46 46 45 44 43 42 41 39 37 36 34
38 38 37 37 38 38 39 38 38 38 38 38 38 39 40 41 42 42 43 44 45 45 46 46 47 47 48 48 48 47 47 46 45 44 44 43 42 40 39 37 36 35 33
38 38 38 38 38 38 38 39 39 39 39 39 40 41 41 42 43 43 44 45 46 46 46 46 46 46 47 47 47 46 45 44 43 42 41 40 39 38 36 35 34 33 32
37 38 38 38 38 39 40 40 41 40 40 41 41 41 42 43 44 44 45 45 45 46 45 45 44 45 45 45 45 44 44 43 42 40 40 38 37 35 34 33 33 32 30
38 38 39 40 39 40 41 42 42 42 42 42 42 42 43 44 44 44 44 44 45 45 44 44 44 44 44 44 43 43 42 41 40 39 38 36 35 34 33 32 30 29 28
41 41 42 42 42 42 43 43 43 44 44 44 43 43 44 44 43 43 44 44 44 44 44 43 43 43 43 42 42 41 40 38 37 36 35 34 33 31 31 30 29 28 27
44 44 44 44 45 45 45 45 45 45 44 44 44 43 43 43 43 43 43 43 43 43 42 42 42 42 41 41 40 39 38 36 35 35 34 32 31 29 29 28 27 26 26
46 46 46 45 45 45 45 45 44 44 44 44 43 43 43 42 42 42 42 42 42 41 41 41 41 40 40 39 38 37 36 35 34 32 31 30 28 27 26 26 26 25 25
48 47 47 46 46 45 45 45 45 45 44 44 44 43 43 42 42 42 42 41 41 40 40 40 40 39 38 37 36 35 33 33 31 30 29 28 27 27 26 25 25 25 25
49 49 49 48 47 47 47 46 46 46 45 44 44 43 43 42 42 41 40 40 40 39 39 39 38 37 36 34 33 32 31 30 29 28 28 28 27 26 25 25 25 25 25
51 51 50 50 49 49 48 48 47 46 45 45 44 43 42 42 41 40 40 39 39 38 38 37 36 35 33 32 30 30 29 28 28 27 26 26 26 25 25 25 25 25 25
51 51 51 50 50 49 49 48 47 46 46 45 43 43 42 40 40 39 39 38 38 37 36 35 33 32 31 30 29 28 28 27 27 26 25 25 25 24 24 24 25 25 25
50 50 49 49 49 49 48 48 47 46 45 44 42 42 41 40 39 39 38 37 37 36 35 33 32 31 30 30 29 28 28 27 26 25 25 24 24 23 24 24 25 25 26

GEFSMA_500_meanwind_090.txt.gz
Wind_Speed
41 39 38 36 35 33 32 31 30 28 28 27 26 25 24 24 23 23 23 23 23 23 24 24 25 25 26 27 28 29 30 30 31 32 32 33 33 34 34 34 34 33 32
44 42 40 38 37 35 34 33 31 30 30 29 28 27 27 26 26 25 25 25 25 26 26 27 27 28 29 29 30 31 31 32 33 33 34 34 34 35 35 35 34 34 33
46 44 42 40 39 38 36 35 33 32 31 31 30 29 28 28 28 28 27 27 27 28 28 29 29 30 30 31 32 32 33 34 35 34 35 35 35 36 36 35 35 34 34
47 46 44 42 41 39 38 37 35 34 33 32 32 31 30 30 30 30 29 29 29 29 30 31 31 32 32 33 33 34 35 35 36 35 36 36 37 37 37 36 36 36 35
49 48 46 44 42 41 40 39 37 36 35 34 33 32 32 31 31 31 31 31 31 31 32 32 33 33 34 34 34 35 35 36 36 36 37 37 38 38 38 38 38 37 37
50 49 48 46 44 43 42 41 39 38 36 35 34 34 33 33 33 33 33 33 33 33 33 33 34 34 34 35 35 36 36 36 36 37 38 39 40 40 40 40 40 39 39
51 51 50 49 47 45 43 41 40 38 36 35 35 35 35 34 34 34 34 35 35 35 34 34 34 35 35 35 36 36 36 37 38 39 40 41 41 42 42 42 42 41 41
50 50 50 49 48 46 44 42 41 39 37 37 36 36 35 34 34 34 35 36 36 35 35 35 35 36 36 36 37 37 37 38 39 40 42 43 44 44 45 44 44 43 42
52 51 50 50 49 48 46 44 43 42 40 39 38 36 35 36 35 35 35 36 36 36 36 36 36 36 36 36 37 37 38 39 41 42 44 45 46 46 46 46 45 44 43
52 50 49 48 47 47 46 46 44 42 40 39 38 37 37 36 37 36 35 35 35 36 36 37 36 36 36 36 36 38 40 42 43 44 46 47 47 47 47 47 46 44 44
48 48 48 45 45 45 44 44 42 40 39 39 38 38 38 38 38 37 37 37 37 37 37 37 37 36 36 37 38 40 42 43 44 45 46 47 47 47 48 47 46 44 43
45 45 46 45 44 43 42 40 40 39 40 40 39 38 38 39 40 40 39 38 38 38 37 37 37 37 38 39 40 41 43 44 45 46 47 47 47 47 47 47 45 44 42
43 43 44 44 43 42 41 40 40 42 43 43 43 42 41 41 41 40 40 39 39 38 37 37 37 38 38 39 40 42 44 45 46 47 47 48 48 48 47 46 45 43 42
42 43 44 45 45 45 45 45 44 44 45 45 45 45 45 43 42 41 41 40 38 37 37 37 37 37 38 40 41 43 44 45 46 47 48 48 48 47 46 46 44 43 41
39 41 44 46 46 46 47 47 48 48 48 47 46 46 46 44 42 40 39 38 37 36 35 37 37 38 40 41 43 44 45 46 47 48 48 48 48 47 46 45 43 41 39
40 39 41 44 46 47 48 48 49 49 48 47 46 46 44 42 40 38 37 37 37 37 37 38 38 40 41 42 44 45 46 46 47 48 48 48 47 47 46 44 41 40 38
39 40 40 41 43 44 44 45 47 46 45 45 45 43 41 39 39 39 38 38 38 38 38 39 40 41 42 43 45 45 46 46 47 47 47 46 46 45 44 42 40 38 36
36 37 38 40 40 41 41 42 43 43 43 42 42 41 41 41 41 40 39 39 40 40 40 40 41 42 43 44 44 44 45 45 46 46 45 45 44 43 42 40 38 37 35
37 38 38 40 41 41 41 41 42 43 43 43 42 42 41 41 40 40 40 40 41 41 41 41 41 42 43 44 44 44 45 45 45 44 44 43 42 42 40 38 36 34 32
40 40 40 40 42 41 40 41 42 42 42 42 42 41 41 41 41 41 41 42 42 41 42 42 42 43 43 43 43 43 43 43 43 43 42 42 41 39 37 35 33 31 30
42 43 43 42 42 42 43 43 43 43 43 43 43 43 43 43 43 43 43 43 43 43 43 43 43 43 43 43 43 42 42 42 42 42 41 39 37 36 34 32 31 29 28
44 45 45 44 44 44 45 45 46 46 46 45 46 45 45 45 45 44 44 44 44 44 44 44 44 43 43 42 41 41 41 41 41 40 38 36 35 33 32 30 29 28 27
47 47 46 47 47 47 47 47 47 48 47 47 48 47 47 46 46 46 46 46 46 46 45 45 44 43 42 41 40 40 40 40 39 38 35 34 32 31 29 28 28 27 26
50 50 50 50 50 50 50 50 50 49 49 49 48 48 48 48 47 47 47 47 47 47 45 44 44 42 41 40 40 39 39 38 37 35 33 32 30 29 28 27 26 25 25
54 54 53 53 53 52 52 52 52 52 51 51 50 50 50 49 48 48 47 47 47 46 45 44 42 41 40 39 39 39 38 36 35 34 32 31 29 28 27 26 25 24 23
56 56 55 55 55 54 54 53 52 52 51 51 51 50 50 49 48 47 47 46 45 44 43 42 41 40 39 39 38 38 37 35 34 33 31 30 29 27 26 25 24 23 23

GEFSMA_500_meanwind_096.txt.gz
Wind_Speed
45 44 42 40 39 38 36 35 33 33 31 30 30 29 28 27 27 27 26 26 26 26 25 25 25 26 26 27 27 28 28 28 29 29 29 30 30 31 31 31 33 34 35
48 46 44 42 41 40 38 37 36 35 34 33 32 31 30 30 30 29 28 28 28 28 27 27 27 27 28 28 29 29 30 30 30 30 30 31 32 32 32 32 33 34 36
50 49 47 45 43 42 41 40 38 37 36 35 34 33 33 33 32 31 30 30 30 30 29 29 29 29 29 30 31 31 31 31 31 31 31 32 32 32 32 33 34 35 37
52 52 50 48 46 45 43 42 41 39 39 38 37 36 36 35 34 33 33 32 31 31 31 31 31 31 31 31 31 31 31 32 32 32 32 33 33 32 32 34 35 36 38
54 53 51 50 49 47 46 45 43 42 41 40 40 39 38 38 36 35 34 34 33 32 32 32 32 33 33 33 32 32 32 32 32 32 32 33 33 32 33 35 37 38 39
56 56 54 52 50 49 49 48 46 45 44 43 42 41 39 39 37 36 35 35 35 34 34 33 34 33 33 33 33 32 32 32 32 33 33 32 32 33 34 36 38 40 41
55 56 56 55 54 52 51 50 49 47 45 44 42 41 40 39 38 37 37 36 35 35 35 35 35 34 34 33 33 33 32 32 33 33 32 32 33 34 36 38 39 41 42
53 54 54 55 55 54 53 52 49 48 46 44 43 43 42 41 40 39 38 38 37 36 36 35 35 35 33 33 33 33 33 33 33 32 32 33 35 36 37 39 40 42 42
51 51 51 52 52 51 52 51 49 48 47 46 45 44 43 42 42 42 40 40 40 38 37 36 35 34 34 33 33 34 34 34 33 33 33 35 36 37 39 40 41 42 43
51 51 51 50 51 51 51 51 50 49 48 47 46 45 45 45 44 42 41 41 40 38 37 36 36 35 35 35 35 35 35 35 34 34 35 36 37 39 40 41 42 43 44
50 52 51 50 50 51 50 50 51 51 50 49 48 46 46 45 44 42 40 40 39 38 37 37 37 37 37 37 36 36 36 35 35 35 36 37 38 39 41 42 44 44 45
49 51 50 48 48 49 50 50 49 49 49 49 48 47 46 44 43 42 41 39 39 38 38 38 39 39 39 38 38 37 37 36 36 37 37 38 40 41 42 44 45 45 46
42 43 43 44 45 47 49 49 49 49 49 48 47 46 44 43 43 42 41 40 40 40 40 40 40 40 40 39 39 38 38 38 37 38 39 40 41 42 44 45 46 46 46
41 43 44 45 46 47 48 50 51 50 49 47 47 46 45 44 44 43 42 42 42 43 43 43 42 43 42 40 39 39 39 38 39 40 40 41 42 44 45 46 47 47 46
38 40 42 43 45 45 46 48 50 50 49 49 48 47 47 46 45 44 44 45 45 46 46 46 45 44 43 41 40 40 40 40 40 40 41 43 44 45 46 46 46 46 46
37 37 40 41 43 45 46 47 47 48 49 49 49 50 50 49 49 49 48 48 48 48 48 47 46 45 42 40 40 41 41 41 41 41 43 44 45 46 46 46 46 46 46
38 39 39 40 41 42 44 44 44 47 48 49 49 50 50 50 51 51 51 50 50 49 48 48 47 44 43 42 42 41 42 42 42 43 44 44 45 45 45 45 45 45 45
34 37 39 40 42 43 44 44 45 46 47 47 49 50 51 51 52 52 52 51 50 49 48 47 45 45 45 44 43 43 43 43 43 43 44 44 44 45 45 45 44 44 43
34 35 38 41 42 44 45 45 45 46 48 49 50 50 51 52 51 51 51 51 49 48 48 46 45 45 45 45 45 44 43 43 43 43 44 44 44 44 44 44 43 42 41
35 38 39 41 43 45 47 48 49 49 50 50 51 52 52 53 52 51 50 49 48 48 48 47 46 46 46 45 44 43 43 43 43 43 44 44 44 43 44 43 42 40 39
39 40 41 42 44 45 47 49 51 51 51 52 52 52 52 52 51 50 49 49 49 48 48 47 47 46 45 44 43 43 43 44 44 44 45 44 44 43 42 41 40 38 36
43 44 45 45 46 47 48 50 50 50 50 51 50 51 50 50 50 50 50 50 49 49 49 48 48 46 45 45 44 44 44 45 45 45 45 44 43 42 41 40 38 36 34
46 48 49 50 51 51 51 52 53 53 52 51 51 51 51 51 51 51 50 49 49 49 48 49 48 48 47 46 45 45 45 45 45 45 44 43 42 41 39 37 35 34 32
49 50 50 52 53 54 54 55 56 56 55 54 54 53 53 53 53 53 52 52 51 51 50 50 49 50 49 48 47 47 46 46 45 44 43 42 41 39 37 35 34 32 30
53 54 55 56 56 57 57 57 56 56 57 56 56 56 56 55 56 56 55 54 54 53 53 53 52 50 50 49 48 48 46 45 44 44 42 41 39 37 36 34 32 31 29
56 57 58 59 59 58 58 59 57 57 58 58 58 58 58 58 58 58 57 56 56 55 54 53 52 51 50 49 48 47 46 44 44 43 41 39 37 36 34 33 31 30 28

GEFSMA_500_meanwind_102.txt.gz
Wind_Speed
45 45 45 44 43 42 41 39 38 36 35 33 32 31 30 30 29 29 28 28 28 28 27 27 27 27 28 28 28 28 28 28 28 28 28 28 28 28 27 28 28 28 28
45 46 46 46 45 43 42 42 40 39 37 36 34 33 33 32 32 31 31 31 30 30 30 30 30 30 30 30 29 30 30 30 30 30 30 29 29 28 28 29 29 29 29
46 46 46 46 45 45 45 44 42 41 40 38 37 36 35 34 34 34 33 33 33 33 32 32 32 32 32 31 31 32 32 32 32 32 31 30 30 29 29 30 29 29 29
46 47 47 47 47 47 47 46 45 43 42 41 40 39 38 37 36 36 35 35 35 35 35 34 34 34 34 33 33 33 33 33 33 32 32 31 31 30 30 30 29 29 30
48 48 48 49 49 48 48 48 46 46 45 44 43 42 41 39 39 38 38 38 37 37 36 35 35 34 34 35 35 35 35 34 34 33 33 32 31 31 31 30 29 30 31
50 49 50 50 50 51 50 49 49 49 48 47 47 46 44 43 41 40 40 39 38 38 36 35 35 35 35 36 36 36 36 35 35 34 34 33 33 32 31 31 31 32 32
52 52 52 52 52 52 51 51 51 51 50 49 48 48 47 45 43 41 40 40 39 39 38 37 37 37 38 37 37 37 37 37 36 35 34 34 34 33 32 32 33 33 33
53 54 53 53 54 54 54 52 53 54 53 53 51 49 47 46 45 43 42 41 41 41 40 39 39 39 39 38 38 40 40 38 37 36 36 35 35 34 34 34 34 34 35
53 52 53 53 53 53 54 54 54 54 53 52 52 51 49 46 45 45 44 44 44 44 43 42 42 42 42 42 41 41 41 39 39 38 37 36 35 35 35 35 35 36 36
52 53 51 51 53 52 52 53 54 53 52 51 51 50 49 48 48 46 46 46 46 46 46 46 45 44 43 43 43 42 41 40 40 39 38 37 37 37 36 36 37 37 37
51 53 53 51 51 50 50 50 52 53 53 52 51 51 50 49 48 48 48 48 48 48 47 47 47 45 45 44 43 41 40 40 39 39 38 38 38 38 38 38 38 38 39
50 51 51 51 51 50 50 50 50 53 54 54 53 53 52 51 50 50 50 49 49 48 49 48 47 46 44 43 41 40 39 39 39 39 40 40 40 40 39 39 39 39 40
48 49 50 51 51 50 50 50 51 50 52 53 53 53 53 52 51 50 49 49 48 48 48 47 46 45 43 42 41 40 40 39 40 41 41 41 41 41 40 40 40 40 41
46 47 50 50 50 50 50 51 51 51 51 52 52 52 51 51 50 50 49 49 49 48 47 46 46 45 44 44 42 42 42 42 42 42 42 43 42 42 42 42 41 41 42
42 45 47 48 48 50 51 51 51 51 51 52 53 53 52 53 53 52 52 51 50 49 48 47 47 45 44 44 44 44 44 44 44 44 44 44 44 43 43 42 41 41 42
37 39 42 44 45 47 49 50 50 50 50 50 51 52 53 54 54 54 54 52 51 51 48 46 46 45 45 45 45 45 46 47 47 46 45 44 44 44 43 42 43 42 42
34 37 39 41 42 44 46 48 49 50 51 50 51 52 53 54 54 54 53 53 53 51 49 47 46 47 49 49 49 49 49 49 49 48 47 46 45 45 43 43 43 42 42
34 36 38 40 42 43 44 45 47 49 49 50 49 50 51 52 53 52 52 54 54 53 52 51 50 51 52 52 51 51 51 50 50 49 48 47 46 45 44 44 43 43 43
34 36 37 39 42 43 45 46 47 47 48 49 48 49 49 50 50 51 52 53 54 54 55 55 54 54 54 54 54 53 52 51 51 50 49 48 46 45 45 45 44 43 42
35 37 39 41 43 44 45 46 48 48 49 50 50 50 50 50 50 51 53 54 54 55 56 56 56 56 56 56 56 55 54 53 51 50 49 48 47 46 45 45 43 42 41
38 40 41 43 45 47 48 48 48 50 50 50 51 52 52 52 53 53 54 55 56 57 57 58 58 58 58 57 56 55 54 53 52 51 49 48 47 46 44 43 41 40 40
40 41 43 45 46 48 50 50 51 52 52 53 53 53 54 54 56 57 58 58 59 59 59 60 60 60 59 58 57 56 55 54 52 50 48 47 45 44 43 41 40 39 39
43 45 47 48 50 51 53 54 55 56 56 57 57 57 58 58 59 60 61 62 62 62 61 61 61 60 59 58 57 56 54 52 50 49 48 46 45 43 41 40 39 39 39
46 48 49 51 53 55 56 58 58 59 59 60 60 60 61 62 62 62 62 62 61 61 60 60 59 58 58 58 56 53 51 50 49 48 47 45 44 43 41 40 40 39 38
47 49 51 53 56 57 59 61 62 62 63 62 62 62 63 63 63 62 62 61 61 61 60 59 58 57 56 56 55 53 52 50 49 47 46 45 44 43 42 41 40 39 38
50 52 53 56 58 60 62 64 66 66 66 66 65 64 64 64 63 63 62 62 61 60 60 59 58 57 56 55 55 54 52 50 49 48 46 45 43 42 41 40 39 38 37

GEFSMA_500_meanwind_108.txt.gz
Wind_Speed
45 44 43 43 41 40 41 42 41 40 40 39 38 37 36 36 34 33 33 32 31 31 30 30 29 29 28 28 28 28 28 29 29 30 30 29 28 28 28 28 28 27 26
48 47 45 44 43 42 42 42 43 43 42 41 40 39 38 38 37 36 35 34 34 33 32 32 32 31 31 30 30 30 30 31 31 32 31 31 30 30 29 29 28 28 27
51 50 48 47 45 44 44 44 44 44 44 42 42 41 40 39 39 38 37 36 36 35 35 34 34 33 33 33 33 33 33 33 32 33 33 32 31 31 30 30 29 29 28
53 53 51 49 47 47 46 46 45 45 45 44 44 43 42 41 41 40 39 39 38 37 37 36 36 35 35 35 35 35 34 34 34 34 33 32 32 32 31 31 30 30 29
56 54 53 52 49 48 48 47 47 46 45 45 45 45 44 43 43 42 41 41 40 40 40 39 38 38 37 37 36 36 35 34 34 34 34 34 33 33 33 32 31 31 30
58 56 54 53 51 50 48 48 49 48 47 46 46 46 46 45 44 44 43 43 43 43 42 41 41 40 40 38 38 37 36 36 36 35 35 35 35 35 34 33 32 32 31
59 58 56 55 53 51 50 50 50 49 49 48 48 48 48 48 47 46 45 45 45 45 45 44 43 42 41 40 39 39 39 38 38 38 37 36 36 37 36 35 34 33 32
60 59 57 56 54 53 51 52 51 51 51 50 50 50 50 49 48 48 48 47 47 46 46 45 44 43 43 42 41 40 40 40 40 39 39 38 39 38 37 37 36 34 33
59 59 59 57 56 54 54 53 52 50 51 51 52 52 50 49 49 48 48 48 47 46 46 45 44 44 44 44 42 42 42 42 41 41 40 40 39 39 39 38 37 35 34
57 57 57 57 56 55 54 54 53 52 52 52 52 52 51 50 51 50 50 48 48 47 46 45 45 46 46 46 45 44 45 44 43 43 42 41 40 39 38 37 36 36 35
52 54 55 56 56 56 55 54 53 53 52 53 53 52 51 51 50 51 50 49 49 48 48 47 47 47 48 47 47 47 47 46 45 44 43 42 41 40 39 37 37 37 37
49 50 53 54 55 55 56 56 54 54 53 53 53 52 52 52 51 50 50 51 52 51 50 49 49 50 50 49 49 48 47 46 46 45 44 42 41 40 38 37 37 38 38
46 48 51 52 52 53 54 56 56 55 54 54 53 53 54 54 54 54 53 53 54 54 53 52 51 51 50 49 48 47 46 46 45 44 43 43 42 41 40 39 38 38 38
43 45 46 49 50 51 52 54 56 55 55 55 54 54 54 55 55 55 54 54 54 53 52 52 51 51 51 49 48 47 46 45 45 44 44 43 42 41 41 40 39 39 39
37 41 43 45 47 48 50 52 54 55 56 56 55 54 54 55 54 54 54 54 54 53 51 50 51 51 50 50 49 49 47 47 46 44 43 43 43 43 42 41 41 41 40
34 36 38 41 44 46 49 50 52 53 55 56 56 56 56 56 56 55 54 54 54 53 53 52 52 52 52 52 51 50 48 48 46 44 43 43 43 42 42 42 43 42 42
33 34 36 39 41 43 45 48 50 51 54 55 56 57 57 57 57 56 56 57 57 56 55 54 53 53 53 53 52 51 50 47 46 46 45 44 43 43 43 43 42 42 42
34 35 37 39 42 43 45 47 48 50 51 54 56 57 58 58 58 58 58 57 56 56 57 56 55 55 54 54 54 53 52 50 48 47 47 47 46 46 46 44 44 43 42
33 35 38 40 42 43 44 46 48 51 52 54 55 57 58 59 59 60 59 59 58 58 58 58 58 58 56 56 56 55 53 52 51 50 49 49 49 48 47 46 45 44 43
33 35 38 40 41 43 44 46 48 52 54 54 56 57 59 60 60 61 61 62 62 61 60 60 61 61 59 58 58 57 55 54 53 53 52 51 51 50 49 48 47 46 45
34 36 38 40 42 44 47 48 50 51 54 55 56 58 59 61 62 62 63 63 63 63 63 62 62 62 60 59 58 58 57 56 56 55 54 54 53 51 50 49 48 47 46
35 37 40 42 44 47 49 51 52 53 55 56 57 58 59 61 63 63 64 64 64 64 64 63 62 61 60 59 58 59 58 57 57 56 56 55 54 53 52 50 49 47 45
37 39 41 44 46 49 51 52 54 56 57 58 59 60 60 61 62 63 63 63 64 64 64 63 62 61 61 60 60 60 59 59 58 57 57 56 55 53 52 52 50 48 46
39 41 44 46 48 50 52 54 56 57 58 60 61 61 61 61 62 63 64 65 65 65 65 65 64 62 62 61 60 60 60 60 60 59 58 57 55 54 53 52 51 49 46
43 45 47 50 51 53 55 56 57 58 58 59 60 61 61 62 63 65 66 67 67 67 67 67 66 63 61 61 62 62 61 60 59 58 58 56 55 54 53 52 50 47 45
47 49 50 51 53 54 55 55 56 57 57 57 58 60 60 61 62 63 64 65 66 66 66 66 65 64 63 61 61 61 60 59 58 57 56 55 54 52 51 50 49 47 44

GEFSMA_500_meanwind_114.txt.gz
Wind_Speed
46 46 45 44 43 42 42 40 39 39 39 38 37 37 37 37 37 35 35 35 34 34 33 33 33 32 31 31 30 30 30 30 29 29 29 29 29 29 28 28 28 27 27
49 48 47 47 46 45 44 44 43 41 40 40 39 37 37 38 38 37 36 36 36 35 35 35 34 34 33 33 33 32 32 31 31 31 31 31 30 30 29 29 28 28 28
52 51 50 49 48 47 47 47 46 45 43 42 41 40 39 39 39 39 38 38 38 37 37 36 36 36 35 35 34 34 34 34 33 33 33 33 32 32 31 30 30 30 29
55 55 53 52 51 50 50 49 48 47 46 44 43 42 42 41 40 40 40 40 39 39 39 38 38 37 37 37 36 36 36 36 35 35 34 34 34 33 33 33 32 31 30
57 57 57 55 54 53 52 51 50 48 48 47 46 45 45 44 43 42 41 41 41 41 41 40 40 39 39 39 38 38 38 38 37 37 36 36 35 35 35 35 34 33 32
57 57 58 58 57 56 54 53 53 52 51 49 48 47 47 46 45 44 43 43 42 42 42 42 42 41 41 41 40 39 40 39 39 39 38 38 37 37 37 36 35 34 34
56 57 56 57 58 58 57 56 55 54 53 52 51 50 49 49 48 47 46 44 43 43 43 43 43 43 43 42 41 41 41 41 40 40 39 39 38 38 38 37 36 35 34
54 55 54 55 56 57 56 56 55 54 54 54 54 53 51 50 49 48 47 46 45 45 44 44 44 43 44 44 43 43 42 42 41 41 41 41 40 39 39 38 37 36 35
52 52 51 51 54 55 56 56 55 55 54 54 55 54 53 51 50 49 48 48 47 47 46 46 45 44 44 44 44 43 43 43 43 42 42 41 40 39 39 39 38 37 35
50 51 52 52 52 53 53 53 54 55 55 54 54 55 55 55 54 51 49 48 47 48 48 47 47 47 45 44 43 43 44 43 43 42 42 42 41 40 40 39 38 37 36
48 50 51 51 51 51 51 52 54 55 54 54 54 54 54 54 54 54 51 49 48 48 49 49 49 47 46 45 44 44 44 43 43 42 43 42 41 41 40 39 39 38 37
46 48 49 50 50 49 49 50 52 54 53 53 54 54 54 54 54 54 53 52 51 49 49 49 49 48 47 46 45 45 45 45 44 44 44 43 42 42 42 41 40 40 39
42 45 46 48 48 48 48 48 50 51 51 51 52 54 54 54 55 56 53 53 53 50 51 50 48 48 48 49 48 46 45 46 46 45 45 45 44 43 43 42 41 40 39
39 42 44 45 46 46 47 48 49 49 50 51 51 52 53 54 54 55 55 54 53 52 51 50 50 50 49 49 49 49 47 47 47 46 46 46 45 44 43 41 40 40 40
34 37 38 40 42 43 44 45 45 47 49 51 51 52 54 54 53 53 54 54 54 53 53 52 51 50 50 51 50 50 50 49 48 48 47 47 46 45 44 42 41 39 39
30 31 33 34 36 38 40 42 43 44 46 47 49 50 51 53 53 53 53 53 54 54 53 51 52 51 51 51 52 52 51 51 50 49 48 48 47 46 45 44 42 41 39
28 30 32 33 35 36 37 39 41 43 45 46 47 49 51 52 55 54 55 55 56 57 56 54 55 54 54 53 53 53 52 52 50 50 49 48 48 48 47 46 45 43 42
28 29 31 32 34 36 37 39 41 43 44 46 48 50 51 52 54 55 55 55 56 57 57 57 57 57 58 57 56 55 54 53 53 52 51 51 51 50 49 48 46 45 44
28 30 32 34 35 37 38 40 42 44 45 47 49 51 52 53 55 57 57 57 57 58 59 60 60 60 60 60 59 57 57 56 55 55 54 53 53 52 51 50 48 47 46
29 30 32 34 36 37 39 41 43 45 46 48 50 51 53 54 55 57 58 59 60 60 61 61 61 61 61 61 61 61 60 58 57 57 56 55 55 54 54 53 51 49 47
30 32 33 35 37 38 40 41 43 45 46 48 51 53 55 56 57 58 59 60 61 62 63 63 62 62 62 62 63 62 62 60 58 57 56 56 56 55 55 54 53 51 49
32 33 35 37 38 40 41 43 44 46 47 49 51 53 54 56 58 59 60 61 63 63 63 62 62 62 62 62 63 63 62 61 59 58 58 58 57 56 56 55 54 52 50
35 35 37 38 40 42 43 44 46 47 49 50 51 53 55 56 58 59 60 61 61 61 61 62 61 61 62 62 62 63 63 63 62 60 60 59 59 58 56 55 54 53 52
36 38 39 40 41 43 45 46 47 48 50 51 53 54 55 56 58 59 59 59 60 60 60 60 61 60 60 62 62 62 61 62 62 61 61 61 59 58 57 56 55 54 53
38 39 41 42 43 44 46 47 48 49 50 51 52 53 55 55 56 57 57 58 58 58 59 59 59 59 59 60 62 62 62 62 62 61 60 60 58 57 56 56 55 54 52
38 39 40 42 43 44 46 47 48 49 50 51 51 52 53 54 55 56 56 56 56 56 57 57 58 59 59 59 60 61 61 60 60 60 59 58 58 58 56 55 55 54 52

GEFSMA_500_meanwind_120.txt.gz
Wind_Speed
46 46 45 45 45 44 44 43 42 41 41 41 40 39 39 38 37 36 35 35 35 35 35 34 34 34 33 33 33 32 32 31 31 30 30 29 29 28 28 28 28 27 27
48 48 48 48 47 47 47 46 45 44 44 43 43 42 41 41 40 39 38 38 37 37 36 36 36 36 36 35 34 34 34 33 32 32 31 31 31 30 29 29 29 29 28
51 51 52 51 50 50 50 49 48 47 47 47 46 44 44 43 43 42 41 40 39 38 38 37 37 37 38 38 37 36 36 35 34 34 33 33 32 32 31 31 31 30 30
52 52 53 53 53 53 53 52 51 50 49 49 49 48 47 46 45 44 43 42 41 40 39 39 39 38 39 39 39 38 38 37 36 36 35 34 34 33 33 33 32 31 30
52 53 53 53 53 54 54 54 54 53 52 52 52 51 50 49 49 48 46 45 45 44 43 42 41 41 41 41 41 41 40 40 39 37 37 36 36 35 35 34 33 32 31
52 52 53 54 54 54 54 55 56 55 54 54 54 53 52 51 51 50 49 48 48 47 45 45 44 43 43 43 43 42 42 41 40 39 38 38 37 37 36 35 35 34 33
51 52 53 53 54 54 54 55 55 55 55 55 55 55 54 52 52 51 50 50 49 48 47 46 44 44 43 43 43 44 44 43 42 41 40 40 39 38 38 37 37 35 34
49 50 52 52 53 54 54 54 54 54 54 56 56 57 56 54 52 51 51 50 50 50 49 48 47 47 46 45 44 44 45 45 44 43 42 41 41 40 39 39 37 36 36
47 47 49 50 51 53 53 53 54 53 54 55 56 56 57 56 54 52 50 50 51 51 51 50 50 49 48 47 46 46 46 46 45 45 44 43 42 41 41 39 38 37 37
44 45 46 47 49 51 51 52 53 53 52 52 54 55 56 57 56 54 52 51 52 52 51 51 51 50 49 49 48 48 47 47 46 46 46 45 43 42 41 40 40 39 37
41 43 45 46 47 48 50 50 51 53 53 52 52 54 55 56 56 56 54 52 52 52 52 53 52 52 52 51 50 50 49 48 46 47 47 46 45 44 43 42 41 40 39
37 39 42 44 45 47 49 49 51 52 54 54 53 52 53 54 55 55 56 55 54 53 52 52 52 51 52 52 51 51 51 49 48 48 48 47 47 46 45 44 43 42 40
35 36 38 40 43 46 48 49 51 52 53 54 54 53 53 52 53 55 55 55 54 53 53 53 53 52 52 52 52 52 52 50 49 49 49 48 47 47 46 45 44 43 42
33 35 36 37 39 42 44 46 47 49 51 52 53 52 53 53 54 55 55 55 55 54 54 53 54 55 55 53 52 52 52 52 51 51 50 49 49 48 48 47 46 44 43
32 33 34 34 36 38 40 43 45 46 48 50 51 52 52 52 53 54 54 55 56 56 55 54 55 55 56 55 54 53 53 52 52 52 51 51 51 50 49 49 48 46 44
32 32 33 33 35 36 38 40 42 43 45 46 48 50 51 52 53 54 55 55 55 56 56 56 57 56 56 56 56 56 55 54 54 54 54 53 52 52 51 50 49 48 47
32 33 33 34 34 36 37 38 39 41 43 45 47 49 50 51 52 52 53 55 56 57 57 57 57 58 58 58 58 59 59 58 57 56 56 55 54 54 53 52 51 50 49
32 33 33 34 35 36 37 39 39 40 41 43 45 47 49 51 52 53 53 55 57 58 59 58 58 58 59 60 59 59 60 60 59 59 59 58 56 55 55 54 53 52 52
31 32 33 34 35 36 36 37 38 40 40 42 44 45 48 50 51 54 55 56 57 58 59 59 60 61 61 60 60 61 61 61 61 60 59 57 57 57 56 55 54 55 53
32 33 34 35 36 37 38 39 40 41 43 44 45 46 47 49 51 53 54 56 57 58 59 59 60 62 62 61 62 62 62 62 62 61 60 59 58 58 58 57 56 56 56
33 34 35 35 36 37 39 40 41 43 44 45 46 48 49 50 51 53 54 55 56 57 59 60 60 61 61 62 62 62 62 61 60 61 62 61 61 61 60 60 59 58 58
34 35 35 36 37 39 40 41 42 43 44 45 46 47 49 50 51 53 54 56 57 58 59 60 60 61 62 63 63 63 64 64 62 61 62 63 63 62 62 61 61 61 60
35 36 36 37 38 39 40 41 42 43 44 46 47 48 49 49 51 52 53 55 56 57 58 59 60 60 62 64 64 64 64 64 62 61 63 64 64 64 64 63 62 61 61
36 36 36 37 38 39 40 41 42 43 44 45 46 46 48 49 51 52 53 54 55 56 57 58 59 60 61 62 63 63 63 63 62 62 63 63 64 66 67 66 64 62 61
37 38 38 39 40 41 42 43 43 43 44 45 46 47 49 50 52 53 53 54 54 55 56 58 59 60 60 60 61 62 63 63 62 61 61 61 61 63 64 64 63 62 61
38 39 39 40 41 42 43 43 43 43 44 45 47 48 50 51 51 52 53 53 54 54 55 56 57 57 57 58 59 60 61 62 61 60 60 60 59 61 61 61 61 61 61

GEFSMA_500_meanwind_126.txt.gz
Wind_Speed
43 43 44 44 44 45 44 44 43 43 42 42 43 42 42 41 41 40 40 39 39 38 38 38 37 36 35 35 35 35 34 34 33 33 32 31 31 30 30 29 29 28 27
43 44 45 46 46 47 46 46 46 46 45 45 45 45 44 44 44 43 42 42 41 41 40 39 39 38 37 36 36 36 36 35 35 35 34 33 33 32 31 31 30 30 29
42 44 45 46 47 48 49 49 49 49 48 47 47 47 47 47 47 46 45 45 45 44 42 41 41 40 39 39 38 37 37 37 36 36 36 35 35 34 33 33 32 31 31
42 44 45 47 48 48 49 50 50 50 50 50 49 49 49 49 49 48 48 48 47 46 46 44 43 43 42 41 40 39 39 38 38 37 37 37 36 36 35 35 34 33 32
43 43 44 45 47 48 48 49 50 51 51 52 52 51 50 50 50 50 49 49 48 47 47 46 46 45 44 43 42 41 41 41 41 40 39 39 38 37 36 36 35 34 34
43 43 43 44 46 47 48 49 50 51 51 52 53 53 52 51 51 51 49 50 50 49 49 48 48 48 47 46 45 44 43 42 42 42 41 41 40 39 38 37 36 36 35
42 42 43 44 45 47 49 50 51 51 51 51 52 53 53 54 53 52 51 51 51 51 50 50 50 49 49 49 48 47 46 45 43 42 42 42 42 41 40 38 38 37 37
42 42 42 42 43 45 46 47 49 50 51 51 52 53 54 54 54 54 55 54 54 54 52 52 51 50 49 49 49 49 48 48 46 44 44 44 43 43 41 40 39 39 39
41 41 42 42 43 44 44 44 46 48 49 50 50 52 53 54 55 54 55 56 55 55 54 54 53 52 51 50 50 51 50 49 48 48 47 46 44 43 42 41 40 40 39
40 40 41 42 42 43 43 44 45 46 48 50 51 51 52 52 53 52 52 53 54 55 55 54 55 55 53 52 52 52 51 51 51 49 48 48 46 46 45 43 42 41 40
40 40 41 41 41 40 41 42 43 44 46 47 49 50 51 51 52 52 52 52 53 53 54 53 54 55 54 53 52 53 52 51 52 51 51 50 48 47 46 45 44 42 41
39 39 39 39 39 39 39 40 41 42 43 45 47 49 50 51 52 52 52 52 53 53 52 52 53 54 56 55 54 53 52 51 51 52 52 51 49 47 46 45 45 44 43
38 39 39 39 39 38 39 39 40 42 43 44 45 47 48 50 51 51 52 52 53 53 53 54 53 53 54 55 55 55 54 52 52 52 51 51 51 50 48 46 46 46 45
37 38 38 38 39 40 40 41 41 42 43 43 43 44 46 47 49 50 51 51 52 53 54 54 54 54 55 55 55 57 56 55 55 53 52 52 53 53 51 49 48 47 47
37 38 38 39 39 40 40 41 41 41 41 42 42 44 45 46 47 48 49 51 52 53 54 55 55 56 57 57 57 58 57 57 57 56 54 53 54 54 53 52 51 49 49
36 37 38 39 39 40 40 41 41 41 42 42 43 43 44 46 47 48 49 50 52 53 53 54 55 55 56 58 59 60 59 59 59 58 57 55 54 54 54 54 53 52 51
35 35 36 37 38 39 39 40 40 41 41 42 42 43 43 45 47 48 49 50 51 52 52 53 54 55 56 56 58 59 60 60 60 60 60 58 58 58 58 58 57 55 54
35 36 36 37 37 38 38 39 40 41 41 42 43 43 44 44 46 48 49 50 51 52 53 54 54 55 56 56 57 58 60 61 62 63 63 61 59 59 60 60 60 58 56
36 36 36 37 38 38 38 39 40 41 42 42 43 44 44 45 45 47 48 50 51 52 53 54 55 55 56 57 57 58 58 60 61 62 64 64 62 61 61 61 61 60 60
35 36 37 38 38 39 39 40 41 42 43 44 44 45 46 46 47 47 48 49 50 52 53 55 56 57 58 59 59 59 59 60 61 61 63 63 63 62 61 61 61 61 61
36 37 37 38 39 40 41 41 42 43 43 44 45 45 47 47 48 49 49 50 50 52 53 54 55 56 57 59 60 61 61 60 61 61 61 62 62 63 63 62 61 62 62
37 38 39 40 40 40 40 40 41 42 43 44 45 46 46 47 48 49 49 50 51 52 53 54 55 56 56 58 59 60 61 61 61 61 62 62 62 63 63 63 63 63 63
38 39 40 40 40 40 40 40 41 42 43 43 44 45 46 47 48 49 49 50 51 52 53 54 54 55 56 57 57 58 58 60 61 61 62 61 62 62 63 64 64 64 64
39 40 40 40 40 40 41 41 42 42 43 43 44 46 47 47 49 49 50 50 51 51 52 53 53 54 54 55 56 57 58 59 59 60 61 61 61 62 62 63 64 64 63
40 40 40 41 41 42 42 42 42 43 43 44 44 45 46 47 48 48 49 49 49 50 51 52 52 53 54 55 56 56 57 58 57 57 59 60 60 60 60 60 60 61 62
41 41 41 41 42 42 43 43 43 43 43 44 44 45 46 46 47 47 48 48 48 48 49 50 51 53 53 54 54 54 55 56 56 55 56 58 58 60 59 57 58 60 61

GEFSMA_500_meanwind_132.txt.gz
Wind_Speed
37 37 37 38 38 39 39 39 40 41 41 42 42 42 41 42 42 42 41 41 41 41 40 40 39 39 39 38 38 38 37 36 36 35 35 35 34 33 33 32 32 31 30
36 37 37 38 38 38 39 40 40 41 42 43 43 43 43 44 44 44 44 44 44 44 44 43 42 42 42 41 41 40 39 39 38 37 37 37 36 35 35 34 34 33 32
37 37 38 38 39 40 40 41 42 42 43 44 44 45 45 46 46 46 47 47 46 46 46 45 45 44 44 43 43 43 42 41 40 40 39 39 38 38 37 36 35 35 34
37 38 39 39 40 40 41 41 42 42 44 44 45 46 46 47 47 47 48 48 48 48 48 48 46 45 45 44 44 44 44 43 43 43 42 41 40 40 39 38 37 37 35
36 37 38 39 39 40 41 41 42 42 42 43 44 45 46 47 47 48 48 48 48 49 50 50 49 48 48 47 46 45 44 44 44 44 43 43 42 41 41 40 40 39 37
37 37 37 38 38 39 40 40 41 43 44 44 44 45 46 47 48 50 50 49 48 49 50 51 52 51 51 51 49 48 46 46 46 46 45 45 44 43 42 42 41 40 39
36 36 37 37 37 38 39 40 41 43 44 45 45 46 47 47 49 49 50 50 50 50 51 52 52 53 53 52 52 51 49 48 48 47 47 45 45 44 44 43 42 42 40
37 37 37 37 38 38 39 40 41 42 43 44 45 46 46 47 48 49 49 49 51 51 51 52 53 54 54 54 54 54 52 51 50 50 49 48 46 45 44 44 43 43 42
37 37 36 36 37 37 38 39 39 40 41 42 43 44 45 46 47 49 50 51 52 52 52 53 53 54 54 53 53 55 54 54 53 52 51 50 48 47 47 46 45 45 45
36 36 37 37 37 37 37 38 39 39 40 40 41 42 43 44 45 46 48 49 50 50 51 51 52 53 54 53 53 53 53 53 54 54 53 52 51 50 49 48 48 47 48
37 37 37 38 38 38 38 39 40 40 41 41 41 42 43 44 45 44 45 46 47 48 48 49 50 51 53 53 52 52 53 54 55 55 55 53 52 52 51 51 50 49 49
37 38 38 38 39 39 40 40 40 41 41 41 41 42 43 44 45 45 45 46 46 48 48 48 49 50 51 53 53 53 52 54 55 56 56 56 55 54 53 53 52 51 51
38 39 39 40 40 41 41 41 41 41 41 41 41 42 42 43 44 44 45 45 45 46 48 49 50 52 52 53 53 53 53 52 53 55 56 57 57 56 55 55 54 52 52
39 40 40 40 41 41 40 40 40 40 40 41 41 41 41 42 42 43 44 44 45 46 47 48 50 51 52 52 52 53 53 53 53 54 54 55 56 56 56 56 55 54 52
40 40 40 40 40 40 40 40 39 40 40 40 41 41 42 42 43 44 44 44 45 46 47 47 48 49 50 51 52 53 53 54 54 55 55 56 57 57 58 59 57 56 55
41 41 40 41 41 40 40 39 40 40 40 41 41 42 43 43 44 44 45 46 46 47 46 47 48 49 50 51 52 54 54 54 55 55 57 57 58 59 59 59 59 58 58
41 41 41 40 40 40 40 40 40 41 41 42 42 43 44 44 45 46 46 46 47 47 47 48 49 50 51 52 53 54 54 55 55 55 56 57 58 58 59 59 59 59 59
40 40 40 40 39 40 41 41 42 42 42 43 44 44 44 44 44 45 46 46 47 47 48 49 50 51 52 53 54 54 55 56 56 56 57 58 59 60 60 60 60 60 60
39 39 39 40 40 41 42 43 43 43 43 43 44 44 44 44 44 45 46 47 47 48 48 49 51 52 53 54 54 55 56 57 58 58 58 59 60 61 62 62 62 62 61
39 39 40 41 41 42 42 42 43 42 43 43 43 44 44 45 45 46 46 47 48 49 49 50 50 52 53 54 54 55 56 57 59 59 60 61 61 62 63 64 63 63 62
39 40 40 40 40 41 42 42 42 43 43 43 44 44 44 45 45 46 46 47 48 49 49 50 50 51 52 54 55 55 56 56 58 59 59 60 61 62 62 64 65 65 64
39 39 40 40 41 41 41 42 42 43 42 43 43 43 44 44 45 46 46 47 47 48 49 50 50 51 51 53 54 55 56 56 56 57 58 58 59 61 62 63 64 64 64
39 39 39 39 40 40 41 41 42 42 42 42 43 43 44 44 44 45 45 46 47 47 48 49 49 50 51 52 53 54 55 55 54 55 56 56 57 58 60 62 63 63 63
39 39 38 39 39 40 41 41 41 41 42 42 43 43 43 43 43 43 43 43 44 45 46 47 48 50 51 53 53 53 53 54 54 55 55 54 55 56 58 60 61 62 62
38 38 39 39 39 40 40 40 41 41 42 42 43 43 43 43 43 43 42 42 43 44 45 47 48 48 50 51 51 52 52 53 53 53 55 55 54 55 55 56 58 60 61
39 39 39 39 40 40 40 40 40 41 41 42 42 43 43 43 43 43 42 43 43 44 46 47 47 47 47 48 49 50 50 50 51 51 52 53 53 54 53 54 56 58 60

GEFSMA_500_meanwind_138.txt.gz
Wind_Speed
33 33 33 33 34 34 34 34 35 35 35 35 36 36 37 37 38 38 38 38 38 39 39 39 39 39 39 39 38 38 38 37 37 36 36 36 35 35 35 35 34 34 33
33 34 34 34 35 35 35 34 34 35 36 36 36 37 37 38 39 39 39 39 39 39 40 41 41 41 41 41 41 41 40 40 39 38 38 38 38 37 37 37 36 36 36
33 33 34 34 35 35 34 34 34 35 36 36 36 36 37 38 38 39 39 40 40 41 41 41 42 42 42 41 42 42 42 42 42 41 41 40 40 40 40 39 38 38 37
32 33 33 33 34 34 34 35 35 35 36 36 37 37 37 38 38 39 40 41 42 42 42 42 42 43 43 43 43 44 43 43 43 43 43 42 42 42 42 42 41 40 39
32 32 32 33 33 34 34 35 35 35 36 36 37 38 38 39 39 40 41 41 42 42 42 43 43 44 44 44 45 45 45 45 44 44 44 44 44 43 43 43 42 42 41
32 32 33 33 33 34 34 35 36 36 36 37 38 38 39 39 40 40 41 42 43 44 44 44 45 46 46 46 46 46 46 46 46 45 45 45 45 45 45 43 42 43 42
33 33 33 33 34 34 35 36 36 36 37 38 38 38 38 39 39 40 41 42 44 45 46 46 47 48 48 47 48 48 48 48 47 47 47 46 46 46 46 45 43 43 43
33 33 33 33 34 34 35 36 37 37 38 38 38 37 37 37 39 40 42 43 43 44 45 46 47 48 48 48 48 48 49 49 48 47 48 48 48 46 46 46 46 45 44
33 33 33 34 35 35 36 37 37 37 38 38 39 39 39 39 39 40 41 42 43 44 45 46 46 47 48 49 49 49 49 49 48 49 49 48 49 48 48 49 47 47 45
34 34 34 35 36 37 37 37 37 38 38 39 39 40 40 40 39 39 41 42 42 43 44 45 45 45 46 47 48 49 50 50 50 50 50 50 49 50 50 50 49 49 49
36 36 37 38 39 39 38 38 39 39 39 40 40 40 41 40 40 39 39 40 41 42 42 43 44 44 44 45 46 47 48 49 50 51 52 53 51 50 51 51 51 51 52
38 38 39 39 40 40 40 40 40 41 41 41 41 41 41 41 41 41 41 40 41 41 41 42 42 44 44 44 46 47 47 47 48 50 50 52 53 52 52 53 52 53 53
40 41 41 42 42 41 41 41 41 42 42 42 42 42 42 42 42 42 42 41 41 42 43 43 44 45 45 46 47 47 47 48 49 49 49 50 51 52 52 52 52 52 53
42 42 43 43 43 44 44 43 43 43 43 43 43 43 43 43 43 43 43 43 43 43 44 44 45 46 46 46 47 47 47 48 49 49 49 49 50 51 52 53 52 52 52
43 43 44 44 45 45 45 45 45 45 44 44 44 44 44 44 44 44 44 44 44 44 44 45 46 46 47 47 47 48 48 48 49 49 49 50 50 51 52 53 53 53 53
45 46 46 46 46 46 45 46 46 45 45 44 44 44 44 44 45 45 46 46 46 46 46 46 47 47 47 48 48 49 50 51 51 52 51 51 52 53 52 53 55 55 55
45 45 46 46 46 46 46 46 45 45 45 45 44 44 45 45 46 46 47 47 47 47 47 47 47 47 48 48 48 48 49 51 51 52 53 52 52 54 54 54 54 54 54
45 45 45 46 46 47 46 46 45 45 45 44 45 45 45 46 46 47 47 47 47 46 47 47 47 48 48 49 50 50 50 50 52 53 53 53 54 54 55 55 56 55 54
44 45 46 46 46 46 45 45 45 45 45 45 45 45 46 46 46 46 46 46 45 46 46 46 46 47 48 48 50 50 50 51 52 53 54 54 54 55 55 56 56 56 56
45 45 45 45 44 44 45 45 44 44 44 45 45 45 46 46 45 45 45 45 45 45 45 45 45 46 48 48 49 50 50 50 51 52 53 54 55 55 56 56 57 57 57
44 44 43 43 43 43 43 43 43 43 43 44 44 45 45 44 44 44 44 44 44 44 45 45 46 47 48 48 48 49 49 50 50 51 52 53 54 54 55 56 57 58 58
44 44 43 43 43 43 43 43 43 43 43 43 43 43 44 43 43 43 43 43 44 44 44 45 46 47 47 48 48 48 48 49 49 50 51 51 52 52 53 54 55 56 56
43 43 42 42 42 42 43 43 43 43 43 43 43 43 43 42 42 43 43 43 44 44 45 45 46 46 46 46 47 47 47 46 47 49 50 50 51 52 53 53 54 54 54
43 43 43 43 43 43 43 43 44 43 43 43 42 42 42 42 42 42 43 43 44 44 45 45 46 45 45 45 45 44 43 43 43 45 47 48 49 50 51 53 54 54 55
44 44 43 43 43 43 43 43 44 43 43 42 42 41 42 42 43 43 43 43 44 45 45 45 45 45 45 44 44 43 42 42 43 44 46 46 47 48 49 50 52 53 54
44 44 43 44 44 44 44 43 43 43 43 42 42 42 42 43 43 43 43 44 44 44 45 45 45 45 44 44 42 42 42 42 43 44 45 46 46 47 46 47 48 49 50

GEFSMA_500_meanwind_144.txt.gz
Wind_Speed
29 30 30 31 31 32 32 32 32 32 33 33 33 33 33 33 34 34 34 35 36 36 36 36 37 38 38 38 39 39 39 40 39 38 38 38 37 37 36 36 36 36 35
30 31 31 31 31 31 31 31 32 32 32 32 32 32 33 33 33 33 34 34 35 36 37 37 38 39 39 39 39 39 39 40 41 41 40 39 39 39 38 38 38 38 37
31 31 31 31 32 32 32 32 32 32 32 32 33 33 34 34 34 34 34 35 35 36 37 38 39 41 40 40 41 41 40 40 41 42 42 42 41 41 40 39 39 39 39
32 32 32 32 32 32 32 32 32 32 32 33 33 33 34 34 34 35 35 36 37 37 38 39 40 40 41 42 42 42 42 42 43 43 43 43 43 43 42 42 41 41 40
34 34 34 33 33 32 32 32 32 32 32 32 33 33 34 34 35 36 36 37 37 38 38 39 40 40 41 42 43 44 45 45 45 44 44 44 44 44 44 44 43 43 43
34 34 33 33 33 32 32 32 32 32 32 32 32 33 34 36 37 38 38 38 38 39 39 40 40 41 42 42 44 45 46 46 46 45 44 44 45 45 45 44 44 44 43
34 34 33 33 33 33 33 33 33 33 33 34 34 35 35 36 37 37 37 37 38 39 39 40 41 42 43 44 44 46 45 45 46 46 45 45 45 45 46 45 45 45 44
34 34 33 33 33 33 34 34 34 34 35 36 37 37 37 38 38 38 38 39 39 39 40 41 41 42 43 43 45 46 46 47 46 46 46 47 46 46 46 45 45 45 44
32 32 33 33 33 34 34 35 36 36 36 37 38 39 39 39 39 40 40 40 40 41 41 42 42 42 42 43 44 45 47 47 47 46 46 46 46 46 47 47 48 47 48
34 34 34 34 35 36 36 37 37 38 39 39 40 40 41 41 41 40 41 42 42 42 42 43 43 43 44 44 44 45 46 47 48 47 46 46 47 47 47 47 48 48 49
35 35 36 37 37 38 39 39 40 40 41 41 41 42 42 42 42 41 41 42 43 44 44 44 44 44 44 44 45 46 46 47 47 48 47 47 48 48 49 49 48 49 50
37 38 38 39 40 40 41 41 42 42 43 43 43 43 43 43 43 43 42 42 42 44 44 44 44 44 44 45 45 46 47 48 48 48 49 49 49 50 50 51 51 51 50
39 40 41 42 43 43 43 44 44 45 45 45 45 45 45 45 45 45 44 44 43 44 44 45 45 45 45 45 46 47 48 48 49 49 49 50 51 51 52 52 54 54 53
42 43 44 44 45 45 45 46 46 46 46 46 46 46 46 46 46 46 46 46 45 45 45 45 46 47 47 47 48 49 49 49 49 50 50 51 52 52 52 53 54 55 55
44 46 46 46 46 46 47 47 47 48 48 48 48 48 47 47 47 47 47 47 46 46 46 46 47 48 48 49 49 50 50 50 50 51 51 51 52 52 53 54 55 55 55
45 46 46 46 47 47 48 48 49 49 49 49 49 49 49 49 49 48 48 47 47 47 47 47 48 49 49 50 50 50 50 51 50 50 51 52 52 52 53 53 54 55 56
45 46 47 47 48 48 48 49 49 49 49 49 49 50 50 49 49 48 48 48 48 48 47 48 49 49 49 49 50 50 50 50 50 51 52 52 53 52 52 53 54 55 56
46 47 47 48 48 48 49 50 50 50 50 50 50 50 49 48 48 48 48 47 47 47 47 48 49 49 49 49 49 49 48 48 49 50 51 51 52 52 52 53 53 53 54
47 48 48 49 49 49 50 50 50 49 49 49 49 49 49 48 48 48 47 47 47 48 48 48 48 48 48 48 48 48 48 49 49 50 51 51 51 52 52 53 53 54 54
48 49 49 49 50 50 50 50 50 49 49 49 49 49 48 48 48 47 47 47 47 47 47 47 47 47 48 47 47 47 47 48 48 49 50 50 51 51 52 52 53 54 54
49 49 50 50 50 50 50 50 50 49 49 48 48 48 48 47 47 47 46 46 46 46 47 46 46 46 46 46 46 46 46 46 47 48 48 49 50 51 51 51 51 52 54
50 51 51 51 51 51 50 49 49 49 48 48 48 47 47 47 46 46 46 45 45 45 45 45 45 45 45 45 45 45 45 45 46 47 48 48 49 49 49 49 50 51 54
51 51 51 51 51 50 50 49 49 48 48 48 47 46 46 46 46 45 45 45 45 44 44 44 44 44 44 44 44 44 45 45 46 46 46 46 47 47 48 48 48 49 50
51 51 51 51 50 50 49 49 49 48 47 46 46 46 45 45 44 44 44 44 44 44 44 44 44 45 45 44 44 44 44 44 45 45 45 44 45 46 47 47 47 48 49
51 51 51 50 49 49 49 48 47 47 46 46 45 45 44 44 43 43 43 43 43 43 44 44 44 44 45 45 44 44 44 44 44 44 45 45 45 45 45 47 47 48 48
51 50 50 49 48 47 47 47 46 45 44 44 44 44 44 44 43 43 43 43 43 43 43 43 44 44 44 44 44 44 44 44 44 43 44 44 44 44 44 44 46 47 47

GEFSMA_500_meanwind_150.txt.gz
Wind_Speed
28 28 28 28 29 30 31 31 32 32 33 32 32 32 32 31 31 31 31 32 32 33 33 33 33 34 35 35 36 36 37 36 36 37 37 37 37 37 37 36 36 36 35
28 28 29 30 31 32 33 33 33 33 32 31 31 31 31 31 31 31 31 31 32 33 33 33 34 34 35 35 36 37 38 38 37 38 38 37 38 38 38 39 38 38 37
29 30 31 32 33 33 33 33 33 32 31 31 31 31 30 30 30 31 32 32 32 33 33 34 35 36 36 37 37 39 39 39 39 39 39 39 38 39 39 39 40 40 39
30 31 32 33 33 33 32 32 32 32 32 31 31 31 31 30 31 32 32 33 33 34 34 35 36 37 37 38 38 39 40 40 41 41 41 42 42 42 41 41 41 40 40
32 33 33 33 33 33 33 33 33 32 32 32 32 32 32 31 32 33 33 34 35 35 36 36 37 37 38 39 39 39 40 41 42 43 43 43 43 43 43 43 42 40 41
34 34 34 34 34 34 33 33 33 33 33 34 34 33 33 33 34 34 35 36 36 37 38 38 38 38 38 39 39 39 39 40 41 42 44 45 44 44 45 44 43 43 43
35 34 33 33 33 34 34 33 33 33 34 34 35 35 35 36 36 37 37 37 37 38 38 38 39 38 39 39 40 40 40 41 42 42 43 44 44 45 46 45 44 45 45
35 34 33 33 34 34 34 34 35 36 36 37 37 37 37 37 38 39 39 39 39 39 40 40 40 40 41 41 41 41 42 42 43 43 43 44 45 44 45 45 44 44 45
34 34 34 34 35 35 36 36 37 38 38 39 39 40 40 40 40 40 41 41 41 41 42 42 43 43 43 43 43 43 44 44 44 45 45 45 45 46 47 47 46 45 44
35 35 35 36 36 36 37 37 37 38 39 40 41 41 42 43 42 42 43 43 44 44 44 44 45 45 45 45 45 45 46 46 46 47 47 47 47 47 47 48 48 48 47
36 36 36 37 38 38 39 40 40 41 41 42 42 43 43 44 44 44 44 45 45 46 46 47 47 47 47 47 47 47 48 48 48 49 49 49 49 49 49 49 49 49 48
35 36 37 38 39 40 41 41 42 43 44 44 44 45 45 46 46 47 47 47 47 48 48 49 49 49 49 49 49 49 49 49 49 49 49 50 50 50 50 50 50 50 50
36 37 39 39 40 41 42 43 44 45 46 46 47 47 48 48 49 49 49 49 50 50 50 50 51 51 51 52 51 51 50 50 50 51 51 51 51 51 51 51 51 50 51
39 40 41 41 42 43 44 45 47 47 48 49 49 49 50 50 50 51 51 52 52 51 51 51 51 52 52 52 52 52 51 51 51 51 52 52 52 51 52 52 52 52 51
41 42 42 43 44 45 46 47 48 48 49 50 50 50 51 51 52 52 53 53 53 52 52 52 52 52 52 52 52 52 52 52 51 52 52 52 52 52 52 52 52 52 52
42 43 44 44 45 47 48 49 49 50 51 51 51 52 52 53 53 54 54 54 54 54 53 52 52 52 52 51 51 51 51 51 51 51 52 52 52 52 52 52 52 52 52
43 44 45 46 47 48 49 50 51 51 52 52 52 52 53 53 54 54 55 54 54 54 53 52 52 52 51 51 51 51 51 50 51 51 51 51 52 52 52 51 51 51 51
44 45 46 47 48 49 50 51 51 51 52 52 53 53 54 54 55 55 54 53 53 53 53 52 52 52 51 51 51 50 50 50 50 50 50 50 50 50 50 50 50 50 50
46 47 47 48 50 51 51 52 52 52 53 53 54 54 55 55 55 54 54 53 53 53 52 52 51 51 50 50 50 49 49 49 49 49 49 49 49 49 49 49 49 49 49
48 49 50 51 51 52 53 54 54 54 54 55 55 55 55 55 54 54 53 52 52 51 51 50 49 49 49 48 48 48 48 48 48 48 48 48 49 49 49 49 49 49 49
51 51 52 53 54 54 55 56 56 56 56 55 56 55 55 55 54 53 52 51 51 50 50 49 49 48 48 47 47 47 47 47 47 47 47 48 47 47 47 47 47 47 47
52 53 53 54 55 56 56 57 57 56 56 55 55 55 55 54 53 52 51 50 50 49 49 48 48 47 47 47 47 47 46 46 46 46 46 46 46 45 46 47 46 46 46
53 54 55 55 56 56 57 57 57 57 55 54 54 54 53 52 51 51 50 50 49 48 48 48 47 46 46 46 46 46 46 45 45 45 45 44 44 44 45 45 46 46 46
55 56 56 56 56 57 57 58 57 56 55 53 53 52 51 50 49 49 49 48 48 47 47 46 46 45 45 45 45 45 45 44 44 44 44 43 43 44 45 45 45 46 46
56 57 57 57 57 57 58 58 57 55 53 52 51 50 49 48 48 48 47 46 46 46 46 46 45 45 44 44 44 44 44 44 43 43 44 44 43 44 44 45 45 46 46
57 57 57 58 58 58 58 57 56 54 52 51 50 49 48 47 46 46 46 45 45 44 45 44 44 44 43 43 43 43 43 43 43 43 43 44 44 44 43 44 45 45 46